Wetterdaten: Sonntag, 18.02.2018
Datum Zeit Temp. Aussen Temp. o. S. +5cm Feuchte Auss BlattFeu 1 Luftdruck Regen Sonnenschein Regendauer Solar Windben Empfang
18.02.2018 00:00 -2,6 C -3,9 C -5,0 C 89 % 1 lf 1024,7 hPa 0,0 l/m 0 min 0 min 0 W/m 0,0 km/h (0 Bft) 97,83 %
18.02.2018 00:02 -2,6 C -3,3 C -5,6 C 89 % 1 lf 1024,7 hPa 0,0 l/m 0 min 0 min 0 W/m 0,0 km/h (0 Bft) 97,22 %
18.02.2018 00:04 -2,6 C -3,3 C -5,6 C 89 % 1 lf 1024,9 hPa 0,0 l/m 0 min 0 min 0 W/m 4,5 km/h (1 Bft) 97,87 %
18.02.2018 00:08 -2,6 C -3,3 C -5,6 C 89 % 1 lf 1024,9 hPa 0,0 l/m 0 min 0 min 0 W/m 4,5 km/h (1 Bft) 96,81 %
18.02.2018 00:10 -2,6 C -3,3 C -5,6 C 89 % 1 lf 1024,9 hPa 0,0 l/m 0 min 0 min 0 W/m 0,0 km/h (0 Bft) 100,00 %
18.02.2018 00:12 -2,6 C -2,8 C -5,6 C 89 % 1 lf 1024,9 hPa 0,0 l/m 0 min 0 min 0 W/m 0,0 km/h (0 Bft) 100,00 %
18.02.2018 00:14 -2,7 C -3,3 C -5,6 C 90 % 1 lf 1025,0 hPa 0,0 l/m 0 min 0 min 0 W/m 0,0 km/h (0 Bft) 100,00 %
18.02.2018 00:16 -2,7 C -3,3 C -5,6 C 89 % 1 lf 1025,0 hPa 0,0 l/m 0 min 0 min 0 W/m 0,0 km/h (0 Bft) 96,23 %
18.02.2018 00:18 -2,7 C -3,3 C -5,6 C 89 % 1 lf 1024,9 hPa 0,0 l/m 0 min 0 min 0 W/m 0,0 km/h (0 Bft) 97,56 %
18.02.2018 00:20 -2,7 C -3,9 C -5,6 C 89 % 1 lf 1024,9 hPa 0,0 l/m 0 min 0 min 0 W/m 4,5 km/h (1 Bft) 100,00 %
18.02.2018 00:22 -2,7 C -3,9 C -5,6 C 90 % 1 lf 1025,0 hPa 0,0 l/m 0 min 0 min 0 W/m 6,8 km/h (2 Bft) 100,00 %
18.02.2018 00:24 -2,7 C -3,9 C -5,6 C 90 % 1 lf 1025,0 hPa 0,0 l/m 0 min 0 min 0 W/m 4,5 km/h (1 Bft) 100,00 %
18.02.2018 00:26 -2,7 C -3,3 C -5,6 C 90 % 1 lf 1025,0 hPa 0,0 l/m 0 min 0 min 0 W/m 6,8 km/h (2 Bft) 100,00 %
18.02.2018 00:28 -2,8 C -3,3 C -5,6 C 90 % 1 lf 1024,9 hPa 0,0 l/m 0 min 0 min 0 W/m 9,0 km/h (2 Bft) 97,87 %
18.02.2018 00:30 -2,8 C -3,3 C -5,6 C 90 % 1 lf 1024,9 hPa 0,0 l/m 0 min 0 min 0 W/m 6,8 km/h (2 Bft) 100,00 %
18.02.2018 00:32 -2,8 C -3,3 C -5,6 C 90 % 1 lf 1024,9 hPa 0,0 l/m 0 min 0 min 0 W/m 6,8 km/h (2 Bft) 100,00 %
18.02.2018 00:34 -2,8 C -2,8 C -5,6 C 90 % 1 lf 1024,9 hPa 0,0 l/m 0 min 0 min 0 W/m 4,5 km/h (1 Bft) 100,00 %
18.02.2018 00:36 -2,8 C -2,8 C -5,6 C 90 % 1 lf 1024,8 hPa 0,0 l/m 0 min 0 min 0 W/m 6,8 km/h (2 Bft) 98,00 %
18.02.2018 00:38 -2,8 C -2,2 C -5,6 C 90 % 1 lf 1024,9 hPa 0,0 l/m 0 min 0 min 0 W/m 6,8 km/h (2 Bft) 97,87 %
18.02.2018 00:40 -2,8 C -2,2 C -5,6 C 90 % 1 lf 1024,9 hPa 0,0 l/m 0 min 0 min 0 W/m 6,8 km/h (2 Bft) 97,87 %
18.02.2018 00:42 -2,8 C -2,2 C -5,6 C 90 % 1 lf 1024,9 hPa 0,0 l/m 0 min 0 min 0 W/m 4,5 km/h (1 Bft) 95,74 %
18.02.2018 00:44 -2,8 C -2,2 C -5,6 C 90 % 1 lf 1024,9 hPa 0,0 l/m 0 min 0 min 0 W/m 4,5 km/h (1 Bft) 97,87 %
18.02.2018 00:46 -2,8 C -2,8 C -5,6 C 91 % 1 lf 1024,9 hPa 0,0 l/m 0 min 0 min 0 W/m 4,5 km/h (1 Bft) 100,00 %
18.02.2018 00:48 -2,8 C -2,8 C -5,6 C 91 % 1 lf 1024,9 hPa 0,0 l/m 0 min 0 min 0 W/m 2,3 km/h (1 Bft) 100,00 %
18.02.2018 00:50 -2,8 C -3,3 C -5,6 C 91 % 1 lf 1024,8 hPa 0,0 l/m 0 min 0 min 0 W/m 2,3 km/h (1 Bft) 95,74 %
18.02.2018 00:52 -2,7 C -3,3 C -5,6 C 91 % 1 lf 1024,8 hPa 0,0 l/m 0 min 0 min 0 W/m 0,0 km/h (0 Bft) 97,87 %
18.02.2018 00:54 -2,7 C -3,3 C -5,6 C 91 % 1 lf 1024,8 hPa 0,0 l/m 0 min 0 min 0 W/m 0,0 km/h (0 Bft) 93,62 %
18.02.2018 00:56 -2,7 C -3,9 C -5,6 C 91 % 1 lf 1024,8 hPa 0,0 l/m 0 min 0 min 0 W/m 0,0 km/h (0 Bft) 93,48 %
18.02.2018 00:58 -2,7 C -3,9 C -5,6 C 91 % 1 lf 1024,9 hPa 0,0 l/m 0 min 0 min 0 W/m 0,0 km/h (0 Bft) 91,49 %
18.02.2018 01:00 -2,7 C -3,9 C -5,6 C 91 % 1 lf 1024,8 hPa 0,0 l/m 0 min 0 min 0 W/m 2,3 km/h (1 Bft) 93,62 %
18.02.2018 01:02 -2,7 C -3,9 C -5,6 C 91 % 1 lf 1024,8 hPa 0,0 l/m 0 min 0 min 0 W/m 2,3 km/h (1 Bft) 95,74 %
18.02.2018 01:04 -2,7 C -3,9 C -5,6 C 91 % 1 lf 1024,9 hPa 0,0 l/m 0 min 0 min 0 W/m 0,0 km/h (0 Bft) 95,74 %
18.02.2018 01:06 -2,7 C -3,9 C -5,6 C 91 % 1 lf 1024,9 hPa 0,0 l/m 0 min 0 min 0 W/m 2,3 km/h (1 Bft) 95,74 %
18.02.2018 01:08 -2,7 C -3,3 C -5,6 C 91 % 1 lf 1024,9 hPa 0,0 l/m 0 min 0 min 0 W/m 2,3 km/h (1 Bft) 93,48 %
18.02.2018 01:10 -2,7 C -3,9 C -5,6 C 91 % 1 lf 1024,9 hPa 0,0 l/m 0 min 0 min 0 W/m 0,0 km/h (0 Bft) 91,49 %
18.02.2018 01:12 -2,7 C -3,9 C -6,1 C 91 % 1 lf 1024,8 hPa 0,0 l/m 0 min 0 min 0 W/m 0,0 km/h (0 Bft) 95,74 %
18.02.2018 01:14 -2,7 C -3,9 C -6,1 C 91 % 1 lf 1024,9 hPa 0,0 l/m 0 min 0 min 0 W/m 4,5 km/h (1 Bft) 95,74 %
18.02.2018 01:16 -2,8 C -3,9 C -6,1 C 92 % 1 lf 1024,9 hPa 0,0 l/m 0 min 0 min 0 W/m 4,5 km/h (1 Bft) 93,62 %
18.02.2018 01:18 -2,8 C -3,9 C -5,6 C 91 % 1 lf 1024,9 hPa 0,0 l/m 0 min 0 min 0 W/m 4,5 km/h (1 Bft) 95,74 %
18.02.2018 01:20 -2,8 C -3,9 C -5,6 C 91 % 1 lf 1024,9 hPa 0,0 l/m 0 min 0 min 0 W/m 9,0 km/h (2 Bft) 93,48 %
18.02.2018 01:22 -2,8 C -3,3 C -5,6 C 91 % 1 lf 1024,9 hPa 0,0 l/m 0 min 0 min 0 W/m 9,0 km/h (2 Bft) 97,87 %
18.02.2018 01:24 -2,8 C -3,3 C -5,6 C 91 % 1 lf 1024,9 hPa 0,0 l/m 0 min 0 min 0 W/m 9,0 km/h (2 Bft) 97,87 %
18.02.2018 01:26 -2,8 C -3,3 C -5,6 C 91 % 1 lf 1024,9 hPa 0,0 l/m 0 min 0 min 0 W/m 6,8 km/h (2 Bft) 97,87 %
18.02.2018 01:28 -2,8 C -3,3 C -5,6 C 92 % 1 lf 1024,9 hPa 0,0 l/m 0 min 0 min 0 W/m 4,5 km/h (1 Bft) 93,62 %
18.02.2018 01:30 -2,8 C -3,3 C -5,6 C 92 % 1 lf 1025,0 hPa 0,0 l/m 0 min 0 min 0 W/m 6,8 km/h (2 Bft) 97,87 %
18.02.2018 01:32 -2,8 C -3,3 C -6,1 C 92 % 1 lf 1025,0 hPa 0,0 l/m 0 min 0 min 0 W/m 4,5 km/h (1 Bft) 97,83 %
18.02.2018 01:34 -2,9 C -2,8 C -6,1 C 92 % 1 lf 1025,0 hPa 0,0 l/m 0 min 0 min 0 W/m 4,5 km/h (1 Bft) 95,74 %
18.02.2018 01:36 -2,9 C -2,8 C -6,1 C 92 % 1 lf 1025,0 hPa 0,0 l/m 0 min 0 min 0 W/m 4,5 km/h (1 Bft) 95,74 %
18.02.2018 01:38 -2,9 C -2,8 C -6,1 C 92 % 1 lf 1025,1 hPa 0,0 l/m 0 min 0 min 0 W/m 4,5 km/h (1 Bft) 95,74 %
18.02.2018 01:40 -2,9 C -2,8 C -6,1 C 92 % 1 lf 1025,1 hPa 0,0 l/m 0 min 0 min 0 W/m 4,5 km/h (1 Bft) 93,62 %
18.02.2018 01:42 -2,9 C -2,8 C -6,1 C 92 % 1 lf 1025,1 hPa 0,0 l/m 0 min 0 min 0 W/m 4,5 km/h (1 Bft) 97,83 %
18.02.2018 01:44 -2,9 C -3,3 C -6,1 C 92 % 1 lf 1025,2 hPa 0,0 l/m 0 min 0 min 0 W/m 4,5 km/h (1 Bft) 100,00 %
18.02.2018 01:46 -2,9 C -3,3 C -6,1 C 92 % 1 lf 1025,2 hPa 0,0 l/m 0 min 0 min 0 W/m 2,3 km/h (1 Bft) 100,00 %
18.02.2018 01:48 -2,9 C -3,3 C -6,1 C 92 % 1 lf 1025,2 hPa 0,0 l/m 0 min 0 min 0 W/m 4,5 km/h (1 Bft) 97,87 %
18.02.2018 01:50 -2,9 C -3,3 C -6,1 C 92 % 1 lf 1025,2 hPa 0,0 l/m 0 min 0 min 0 W/m 4,5 km/h (1 Bft) 95,74 %
18.02.2018 01:52 -2,9 C -3,3 C -6,1 C 92 % 1 lf 1025,1 hPa 0,0 l/m 0 min 0 min 0 W/m 6,8 km/h (2 Bft) 100,00 %
18.02.2018 01:54 -2,9 C -3,9 C -6,1 C 92 % 1 lf 1025,1 hPa 0,0 l/m 0 min 0 min 0 W/m 6,8 km/h (2 Bft) 93,62 %
18.02.2018 01:56 -2,9 C -3,3 C -6,1 C 92 % 1 lf 1025,1 hPa 0,0 l/m 0 min 0 min 0 W/m 6,8 km/h (2 Bft) 93,48 %
18.02.2018 01:58 -2,9 C -3,3 C -6,1 C 92 % 1 lf 1025,1 hPa 0,0 l/m 0 min 0 min 0 W/m 6,8 km/h (2 Bft) 97,87 %
18.02.2018 02:00 -2,9 C -3,3 C -6,1 C 92 % 1 lf 1025,2 hPa 0,0 l/m 0 min 0 min 0 W/m 6,8 km/h (2 Bft) 95,74 %
18.02.2018 02:02 -2,9 C -3,3 C -6,1 C 92 % 1 lf 1025,2 hPa 0,0 l/m 0 min 0 min 0 W/m 4,5 km/h (1 Bft) 95,74 %
18.02.2018 02:04 -3,0 C -2,8 C -5,6 C 92 % 1 lf 1025,2 hPa 0,0 l/m 0 min 0 min 0 W/m 4,5 km/h (1 Bft) 97,87 %
18.02.2018 02:06 -2,9 C -2,8 C -5,6 C 92 % 1 lf 1025,1 hPa 0,0 l/m 0 min 0 min 0 W/m 4,5 km/h (1 Bft) 97,87 %
18.02.2018 02:08 -3,0 C -2,8 C -6,1 C 92 % 1 lf 1025,2 hPa 0,0 l/m 0 min 0 min 0 W/m 6,8 km/h (2 Bft) 97,83 %
18.02.2018 02:10 -3,0 C -2,8 C -6,1 C 92 % 1 lf 1025,1 hPa 0,0 l/m 0 min 0 min 0 W/m 6,8 km/h (2 Bft) 97,87 %
18.02.2018 02:12 -3,0 C -3,3 C -5,6 C 92 % 1 lf 1025,1 hPa 0,0 l/m 0 min 0 min 0 W/m 9,0 km/h (2 Bft) 95,74 %
18.02.2018 02:14 -3,0 C -2,8 C -5,6 C 92 % 1 lf 1025,1 hPa 0,0 l/m 0 min 0 min 0 W/m 9,0 km/h (2 Bft) 97,87 %
18.02.2018 02:16 -3,0 C -2,8 C -5,6 C 92 % 1 lf 1025,1 hPa 0,0 l/m 0 min 0 min 0 W/m 6,8 km/h (2 Bft) 93,62 %
18.02.2018 02:18 -2,9 C -2,8 C -5,6 C 92 % 1 lf 1025,2 hPa 0,0 l/m 0 min 0 min 0 W/m 6,8 km/h (2 Bft) 97,83 %
18.02.2018 02:20 -2,9 C -2,8 C -5,6 C 93 % 1 lf 1025,2 hPa 0,0 l/m 0 min 0 min 0 W/m 6,8 km/h (2 Bft) 96,61 %
18.02.2018 02:22 -2,9 C -2,2 C -5,6 C 93 % 1 lf 1025,3 hPa 0,0 l/m 0 min 0 min 0 W/m 9,0 km/h (2 Bft) 97,37 %
18.02.2018 02:24 -2,9 C -2,2 C -5,6 C 93 % 1 lf 1025,3 hPa 0,0 l/m 0 min 0 min 0 W/m 6,8 km/h (2 Bft) 97,92 %
18.02.2018 02:26 -2,8 C -2,2 C -5,6 C 93 % 1 lf 1025,3 hPa 0,0 l/m 0 min 0 min 0 W/m 6,8 km/h (2 Bft) 97,87 %
18.02.2018 02:28 -2,8 C -2,2 C -5,0 C 93 % 1 lf 1025,3 hPa 0,0 l/m 0 min 0 min 0 W/m 9,0 km/h (2 Bft) 91,49 %
18.02.2018 02:30 -2,7 C -2,2 C -5,0 C 93 % 1 lf 1025,3 hPa 0,0 l/m 0 min 0 min 0 W/m 9,0 km/h (2 Bft) 97,83 %
18.02.2018 02:32 -2,7 C -2,2 C -5,0 C 93 % 1 lf 1025,3 hPa 0,0 l/m 0 min 0 min 0 W/m 9,0 km/h (2 Bft) 95,74 %
18.02.2018 02:34 -2,7 C -2,2 C -5,0 C 93 % 1 lf 1025,3 hPa 0,0 l/m 0 min 0 min 0 W/m 9,0 km/h (2 Bft) 95,74 %
18.02.2018 02:36 -2,6 C -2,2 C -5,0 C 93 % 1 lf 1025,3 hPa 0,0 l/m 0 min 0 min 0 W/m 6,8 km/h (2 Bft) 93,62 %
18.02.2018 02:38 -2,6 C -2,2 C -5,0 C 93 % 1 lf 1025,3 hPa 0,0 l/m 0 min 0 min 0 W/m 11,3 km/h (2 Bft) 97,87 %
18.02.2018 02:40 -2,6 C -2,2 C -5,0 C 93 % 1 lf 1025,3 hPa 0,0 l/m 0 min 0 min 0 W/m 11,3 km/h (2 Bft) 97,87 %
18.02.2018 02:42 -2,6 C -2,2 C -5,0 C 93 % 1 lf 1025,3 hPa 0,0 l/m 0 min 0 min 0 W/m 9,0 km/h (2 Bft) 97,83 %
18.02.2018 02:44 -2,5 C -2,2 C -5,0 C 93 % 1 lf 1025,3 hPa 0,0 l/m 0 min 0 min 0 W/m 6,8 km/h (2 Bft) 93,62 %
18.02.2018 02:46 -2,5 C -2,2 C -5,0 C 93 % 1 lf 1025,3 hPa 0,0 l/m 0 min 0 min 0 W/m 6,8 km/h (2 Bft) 93,62 %
18.02.2018 02:48 -2,4 C -2,2 C -5,0 C 93 % 1 lf 1025,3 hPa 0,0 l/m 0 min 0 min 0 W/m 6,8 km/h (2 Bft) 95,74 %
18.02.2018 02:50 -2,4 C -2,2 C -5,0 C 93 % 1 lf 1025,2 hPa 0,0 l/m 0 min 0 min 0 W/m 9,0 km/h (2 Bft) 97,87 %
18.02.2018 02:52 -2,4 C -2,2 C -5,0 C 93 % 1 lf 1025,3 hPa 0,0 l/m 0 min 0 min 0 W/m 4,5 km/h (1 Bft) 93,48 %
18.02.2018 02:54 -2,4 C -2,2 C -5,0 C 93 % 1 lf 1025,2 hPa 0,0 l/m 0 min 0 min 0 W/m 9,0 km/h (2 Bft) 97,67 %
18.02.2018 02:56 -2,4 C -2,2 C -5,0 C 93 % 1 lf 1025,3 hPa 0,0 l/m 0 min 0 min 0 W/m 9,0 km/h (2 Bft) 95,74 %
18.02.2018 02:58 -2,4 C -2,2 C -5,0 C 93 % 1 lf 1025,2 hPa 0,0 l/m 0 min 0 min 0 W/m 9,0 km/h (2 Bft) 95,74 %
18.02.2018 03:00 -2,3 C -2,2 C -4,4 C 93 % 1 lf 1025,2 hPa 0,0 l/m 0 min 0 min 0 W/m 6,8 km/h (2 Bft) 95,74 %
18.02.2018 03:02 -2,3 C -2,2 C -4,4 C 93 % 1 lf 1025,2 hPa 0,0 l/m 0 min 0 min 0 W/m 9,0 km/h (2 Bft) 91,49 %
18.02.2018 03:04 -2,3 C -2,2 C -4,4 C 94 % 1 lf 1025,2 hPa 0,0 l/m 0 min 0 min 0 W/m 9,0 km/h (2 Bft) 93,62 %
18.02.2018 03:06 -2,3 C -2,2 C -4,4 C 94 % 1 lf 1025,2 hPa 0,0 l/m 0 min 0 min 0 W/m 6,8 km/h (2 Bft) 95,65 %
18.02.2018 03:08 -2,3 C -2,2 C -4,4 C 94 % 1 lf 1025,2 hPa 0,0 l/m 0 min 0 min 0 W/m 9,0 km/h (2 Bft) 95,74 %
18.02.2018 03:10 -2,2 C -2,2 C -4,4 C 94 % 1 lf 1025,2 hPa 0,0 l/m 0 min 0 min 0 W/m 11,3 km/h (2 Bft) 93,62 %
18.02.2018 03:12 -2,2 C -2,2 C -4,4 C 94 % 1 lf 1025,2 hPa 0,0 l/m 0 min 0 min 0 W/m 9,0 km/h (2 Bft) 95,74 %
18.02.2018 03:14 -2,2 C -2,2 C -4,4 C 94 % 1 lf 1025,3 hPa 0,0 l/m 0 min 0 min 0 W/m 6,8 km/h (2 Bft) 95,74 %
18.02.2018 03:16 -2,2 C -2,2 C -5,0 C 94 % 1 lf 1025,3 hPa 0,0 l/m 0 min 0 min 0 W/m 11,3 km/h (2 Bft) 95,65 %
18.02.2018 03:18 -2,2 C -2,2 C -5,0 C 94 % 1 lf 1025,2 hPa 0,0 l/m 0 min 0 min 0 W/m 9,0 km/h (2 Bft) 91,49 %
18.02.2018 03:20 -2,2 C -2,2 C -4,4 C 94 % 1 lf 1025,2 hPa 0,0 l/m 0 min 0 min 0 W/m 11,3 km/h (2 Bft) 98,31 %
18.02.2018 03:22 -2,2 C -2,8 C -4,4 C 94 % 1 lf 1025,2 hPa 0,0 l/m 0 min 0 min 0 W/m 11,3 km/h (2 Bft) 97,14 %
18.02.2018 03:24 -2,2 C -2,8 C -4,4 C 94 % 1 lf 1025,2 hPa 0,0 l/m 0 min 0 min 0 W/m 9,0 km/h (2 Bft) 95,74 %
18.02.2018 03:26 -2,2 C -2,8 C -5,0 C 94 % 1 lf 1025,2 hPa 0,0 l/m 0 min 0 min 0 W/m 11,3 km/h (2 Bft) 93,62 %
18.02.2018 03:28 -2,2 C -2,8 C -5,0 C 94 % 1 lf 1025,2 hPa 0,0 l/m 0 min 0 min 0 W/m 11,3 km/h (2 Bft) 97,83 %
18.02.2018 03:30 -2,2 C -2,8 C -5,0 C 94 % 1 lf 1025,1 hPa 0,0 l/m 0 min 0 min 0 W/m 11,3 km/h (2 Bft) 97,87 %
18.02.2018 03:32 -2,2 C -2,8 C -5,0 C 94 % 1 lf 1025,2 hPa 0,0 l/m 0 min 0 min 0 W/m 11,3 km/h (2 Bft) 97,87 %
18.02.2018 03:34 -2,2 C -2,8 C -5,0 C 94 % 1 lf 1025,2 hPa 0,0 l/m 0 min 0 min 0 W/m 11,3 km/h (2 Bft) 95,74 %
18.02.2018 03:36 -2,2 C -2,2 C -4,4 C 94 % 1 lf 1025,2 hPa 0,0 l/m 0 min 0 min 0 W/m 9,0 km/h (2 Bft) 97,87 %
18.02.2018 03:38 -2,2 C -2,2 C -4,4 C 94 % 1 lf 1025,2 hPa 0,0 l/m 0 min 0 min 0 W/m 9,0 km/h (2 Bft) 95,74 %
18.02.2018 03:40 -2,2 C -2,2 C -4,4 C 94 % 1 lf 1025,2 hPa 0,0 l/m 0 min 0 min 0 W/m 11,3 km/h (2 Bft) 100,00 %
18.02.2018 03:42 -2,2 C -2,2 C -5,0 C 94 % 1 lf 1025,2 hPa 0,0 l/m 0 min 0 min 0 W/m 11,3 km/h (2 Bft) 97,87 %
18.02.2018 03:44 -2,2 C -2,2 C -5,0 C 94 % 1 lf 1025,2 hPa 0,0 l/m 0 min 0 min 0 W/m 11,3 km/h (2 Bft) 97,87 %
18.02.2018 03:46 -2,2 C -2,2 C -5,0 C 94 % 1 lf 1025,2 hPa 0,0 l/m 0 min 0 min 0 W/m 9,0 km/h (2 Bft) 100,00 %
18.02.2018 03:48 -2,2 C -2,2 C -5,0 C 94 % 1 lf 1025,1 hPa 0,0 l/m 0 min 0 min 0 W/m 9,0 km/h (2 Bft) 100,00 %
18.02.2018 03:50 -2,2 C -2,2 C -4,4 C 94 % 1 lf 1025,2 hPa 0,0 l/m 0 min 0 min 0 W/m 11,3 km/h (2 Bft) 94,83 %
18.02.2018 03:52 -2,2 C -2,2 C -4,4 C 94 % 1 lf 1025,1 hPa 0,0 l/m 0 min 0 min 0 W/m 6,8 km/h (2 Bft) 100,00 %
18.02.2018 03:54 -2,2 C -2,2 C -4,4 C 94 % 1 lf 1025,1 hPa 0,0 l/m 0 min 0 min 0 W/m 9,0 km/h (2 Bft) 95,74 %
18.02.2018 03:56 -2,2 C -2,2 C -4,4 C 94 % 1 lf 1025,0 hPa 0,0 l/m 0 min 0 min 0 W/m 13,5 km/h (3 Bft) 95,74 %
18.02.2018 03:58 -2,2 C -2,8 C -5,0 C 94 % 1 lf 1025,0 hPa 0,0 l/m 0 min 0 min 0 W/m 9,0 km/h (2 Bft) 97,87 %
18.02.2018 04:00 -2,2 C -2,2 C -5,0 C 94 % 1 lf 1025,1 hPa 0,0 l/m 0 min 0 min 0 W/m 11,3 km/h (2 Bft) 97,87 %
18.02.2018 04:02 -2,2 C -2,2 C -5,0 C 94 % 1 lf 1025,0 hPa 0,0 l/m 0 min 0 min 0 W/m 9,0 km/h (2 Bft) 100,00 %
18.02.2018 04:04 -2,2 C -2,2 C -4,4 C 94 % 1 lf 1025,0 hPa 0,0 l/m 0 min 0 min 0 W/m 11,3 km/h (2 Bft) 100,00 %
18.02.2018 04:06 -2,2 C -2,2 C -4,4 C 94 % 1 lf 1024,9 hPa 0,0 l/m 0 min 0 min 0 W/m 13,5 km/h (3 Bft) 95,83 %
18.02.2018 04:08 -2,2 C -2,2 C -4,4 C 94 % 1 lf 1025,0 hPa 0,0 l/m 0 min 0 min 0 W/m 11,3 km/h (2 Bft) 97,87 %
18.02.2018 04:10 -2,2 C -2,2 C -4,4 C 94 % 1 lf 1024,9 hPa 0,0 l/m 0 min 0 min 0 W/m 18,0 km/h (3 Bft) 93,62 %
18.02.2018 04:12 -2,2 C -2,2 C -4,4 C 94 % 1 lf 1024,8 hPa 0,0 l/m 0 min 0 min 0 W/m 11,3 km/h (2 Bft) 97,87 %
18.02.2018 04:14 -2,2 C -2,2 C -4,4 C 94 % 1 lf 1024,9 hPa 0,0 l/m 0 min 0 min 0 W/m 11,3 km/h (2 Bft) 97,83 %
18.02.2018 04:16 -2,2 C -2,2 C -4,4 C 94 % 1 lf 1024,9 hPa 0,0 l/m 0 min 0 min 0 W/m 11,3 km/h (2 Bft) 95,74 %
18.02.2018 04:18 -2,2 C -2,2 C -4,4 C 94 % 1 lf 1024,8 hPa 0,0 l/m 0 min 0 min 0 W/m 13,5 km/h (3 Bft) 97,87 %
18.02.2018 04:20 -2,2 C -2,2 C -4,4 C 94 % 1 lf 1024,8 hPa 0,0 l/m 0 min 0 min 0 W/m 11,3 km/h (2 Bft) 97,87 %
18.02.2018 04:22 -2,2 C -2,2 C -4,4 C 94 % 1 lf 1024,8 hPa 0,0 l/m 0 min 0 min 0 W/m 11,3 km/h (2 Bft) 95,65 %
18.02.2018 04:24 -2,2 C -2,2 C -4,4 C 94 % 1 lf 1024,8 hPa 0,0 l/m 0 min 0 min 0 W/m 13,5 km/h (3 Bft) 97,87 %
18.02.2018 04:26 -2,2 C -2,2 C -4,4 C 94 % 1 lf 1024,8 hPa 0,0 l/m 0 min 0 min 0 W/m 13,5 km/h (3 Bft) 93,48 %
18.02.2018 04:28 -2,2 C -2,2 C -4,4 C 94 % 1 lf 1024,9 hPa 0,0 l/m 0 min 0 min 0 W/m 13,5 km/h (3 Bft) 93,62 %
18.02.2018 04:30 -2,2 C -2,2 C -4,4 C 94 % 1 lf 1024,9 hPa 0,0 l/m 0 min 0 min 0 W/m 11,3 km/h (2 Bft) 91,49 %
18.02.2018 04:32 -2,2 C -2,2 C -4,4 C 94 % 1 lf 1024,9 hPa 0,0 l/m 0 min 0 min 0 W/m 18,0 km/h (3 Bft) 95,74 %
18.02.2018 04:34 -2,2 C -2,2 C -4,4 C 94 % 1 lf 1024,9 hPa 0,0 l/m 0 min 0 min 0 W/m 15,8 km/h (3 Bft) 95,74 %
18.02.2018 04:36 -2,2 C -2,2 C -4,4 C 94 % 1 lf 1024,9 hPa 0,0 l/m 0 min 0 min 0 W/m 15,8 km/h (3 Bft) 95,65 %
18.02.2018 04:38 -2,2 C -2,2 C -4,4 C 94 % 1 lf 1024,9 hPa 0,0 l/m 0 min 0 min 0 W/m 13,5 km/h (3 Bft) 97,87 %
18.02.2018 04:40 -2,1 C -2,2 C -4,4 C 94 % 1 lf 1024,9 hPa 0,0 l/m 0 min 0 min 0 W/m 11,3 km/h (2 Bft) 95,74 %
18.02.2018 04:42 -2,1 C -2,2 C -4,4 C 94 % 1 lf 1025,0 hPa 0,0 l/m 0 min 0 min 0 W/m 18,0 km/h (3 Bft) 95,74 %
18.02.2018 04:44 -2,1 C -2,2 C -4,4 C 94 % 1 lf 1024,9 hPa 0,0 l/m 0 min 0 min 0 W/m 11,3 km/h (2 Bft) 91,49 %
18.02.2018 04:46 -2,1 C -2,2 C -4,4 C 94 % 1 lf 1024,9 hPa 0,0 l/m 0 min 0 min 0 W/m 11,3 km/h (2 Bft) 95,74 %
18.02.2018 04:48 -2,1 C -2,2 C -4,4 C 94 % 1 lf 1024,9 hPa 0,0 l/m 0 min 0 min 0 W/m 13,5 km/h (3 Bft) 93,48 %
18.02.2018 04:50 -2,1 C -2,2 C -4,4 C 94 % 1 lf 1024,9 hPa 0,0 l/m 0 min 0 min 0 W/m 11,3 km/h (2 Bft) 96,61 %
18.02.2018 04:52 -2,1 C -2,2 C -4,4 C 94 % 1 lf 1025,0 hPa 0,0 l/m 0 min 0 min 0 W/m 11,3 km/h (2 Bft) 89,47 %
18.02.2018 04:54 -2,1 C -2,2 C -4,4 C 94 % 1 lf 1025,0 hPa 0,0 l/m 0 min 0 min 0 W/m 13,5 km/h (3 Bft) 95,74 %
18.02.2018 04:56 -2,1 C -2,2 C -4,4 C 94 % 1 lf 1025,0 hPa 0,0 l/m 0 min 0 min 0 W/m 11,3 km/h (2 Bft) 97,87 %
18.02.2018 04:58 -2,1 C -2,2 C -4,4 C 94 % 1 lf 1025,0 hPa 0,0 l/m 0 min 0 min 0 W/m 9,0 km/h (2 Bft) 93,62 %
18.02.2018 05:00 -2,1 C -2,2 C -4,4 C 94 % 1 lf 1025,0 hPa 0,0 l/m 0 min 0 min 0 W/m 13,5 km/h (3 Bft) 95,65 %
18.02.2018 05:02 -2,1 C -2,2 C -4,4 C 94 % 1 lf 1024,9 hPa 0,0 l/m 0 min 0 min 0 W/m 15,8 km/h (3 Bft) 93,62 %
18.02.2018 05:04 -2,1 C -2,2 C -4,4 C 94 % 1 lf 1024,9 hPa 0,0 l/m 0 min 0 min 0 W/m 6,8 km/h (2 Bft) 95,74 %
18.02.2018 05:08 -2,1 C -2,2 C -4,4 C 94 % 1 lf 1025,0 hPa 0,0 l/m 0 min 0 min 0 W/m 15,8 km/h (3 Bft) 96,84 %
18.02.2018 05:10 -2,1 C -2,2 C -4,4 C 94 % 1 lf 1025,1 hPa 0,0 l/m 0 min 0 min 0 W/m 11,3 km/h (2 Bft) 97,87 %
18.02.2018 05:12 -2,1 C -2,2 C -4,4 C 94 % 1 lf 1025,1 hPa 0,0 l/m 0 min 0 min 0 W/m 11,3 km/h (2 Bft) 97,83 %
18.02.2018 05:14 -2,2 C -2,2 C -4,4 C 94 % 1 lf 1025,1 hPa 0,0 l/m 0 min 0 min 0 W/m 13,5 km/h (3 Bft) 100,00 %
18.02.2018 05:16 -2,2 C -2,2 C -4,4 C 94 % 1 lf 1025,1 hPa 0,0 l/m 0 min 0 min 0 W/m 11,3 km/h (2 Bft) 100,00 %
18.02.2018 05:18 -2,1 C -2,2 C -4,4 C 94 % 1 lf 1025,1 hPa 0,0 l/m 0 min 0 min 0 W/m 13,5 km/h (3 Bft) 97,87 %
18.02.2018 05:20 -2,2 C -2,2 C -4,4 C 94 % 1 lf 1025,0 hPa 0,0 l/m 0 min 0 min 0 W/m 11,3 km/h (2 Bft) 100,00 %
18.02.2018 05:22 -2,2 C -2,2 C -4,4 C 94 % 1 lf 1025,1 hPa 0,0 l/m 0 min 0 min 0 W/m 15,8 km/h (3 Bft) 100,00 %
18.02.2018 05:24 -2,2 C -2,2 C -4,4 C 94 % 1 lf 1025,1 hPa 0,0 l/m 0 min 0 min 0 W/m 15,8 km/h (3 Bft) 100,00 %
18.02.2018 05:26 -2,2 C -2,2 C -4,4 C 94 % 1 lf 1025,1 hPa 0,0 l/m 0 min 0 min 0 W/m 13,5 km/h (3 Bft) 100,00 %
18.02.2018 05:28 -2,2 C -2,2 C -4,4 C 94 % 1 lf 1025,1 hPa 0,0 l/m 0 min 0 min 0 W/m 13,5 km/h (3 Bft) 100,00 %
18.02.2018 05:30 -2,2 C -2,2 C -4,4 C 94 % 1 lf 1025,1 hPa 0,0 l/m 0 min 0 min 0 W/m 13,5 km/h (3 Bft) 100,00 %
18.02.2018 05:32 -2,2 C -2,2 C -4,4 C 94 % 1 lf 1025,1 hPa 0,0 l/m 0 min 0 min 0 W/m 13,5 km/h (3 Bft) 97,87 %
18.02.2018 05:34 -2,2 C -2,2 C -4,4 C 94 % 1 lf 1025,2 hPa 0,0 l/m 0 min 0 min 0 W/m 11,3 km/h (2 Bft) 97,87 %
18.02.2018 05:35 -2,2 C -2,2 C -4,4 C 94 % 1 lf 1025,1 hPa 0,0 l/m 0 min 0 min 0 W/m 13,5 km/h (3 Bft) 100,00 %
18.02.2018 05:40 -2,2 C -2,2 C -4,4 C 94 % 1 lf 1025,2 hPa 0,0 l/m 0 min 0 min 0 W/m 13,5 km/h (3 Bft) 100,00 %
18.02.2018 05:42 -2,2 C -2,2 C -4,4 C 94 % 1 lf 1025,1 hPa 0,0 l/m 0 min 0 min 0 W/m 11,3 km/h (2 Bft) 98,31 %
18.02.2018 05:45 -2,2 C -2,2 C -4,4 C 94 % 1 lf 1025,1 hPa 0,0 l/m 0 min 0 min 0 W/m 15,8 km/h (3 Bft) 67,54 %
18.02.2018 05:52 -2,2 C -2,2 C -4,4 C 94 % 1 lf 1025,0 hPa 0,0 l/m 0 min 0 min 0 W/m 11,3 km/h (2 Bft) 100,00 %
18.02.2018 05:54 -2,2 C -2,2 C -4,4 C 94 % 1 lf 1025,1 hPa 0,0 l/m 0 min 0 min 0 W/m 15,8 km/h (3 Bft) 97,87 %
18.02.2018 05:56 -2,1 C -2,2 C -4,4 C 94 % 1 lf 1025,1 hPa 0,0 l/m 0 min 0 min 0 W/m 15,8 km/h (3 Bft) 97,87 %
18.02.2018 05:58 -2,1 C -2,2 C -4,4 C 94 % 1 lf 1025,1 hPa 0,0 l/m 0 min 0 min 0 W/m 15,8 km/h (3 Bft) 100,00 %
18.02.2018 06:00 -2,1 C -2,2 C -4,4 C 94 % 1 lf 1025,1 hPa 0,0 l/m 0 min 0 min 0 W/m 15,8 km/h (3 Bft) 100,00 %
18.02.2018 06:02 -2,1 C -2,2 C -4,4 C 94 % 1 lf 1025,2 hPa 0,0 l/m 0 min 0 min 0 W/m 11,3 km/h (2 Bft) 97,87 %
18.02.2018 06:04 -2,1 C -2,2 C -4,4 C 94 % 1 lf 1025,3 hPa 0,0 l/m 0 min 0 min 0 W/m 13,5 km/h (3 Bft) 97,87 %
18.02.2018 06:08 -2,1 C -2,2 C -4,4 C 94 % 1 lf 1025,3 hPa 0,0 l/m 0 min 0 min 0 W/m 15,8 km/h (3 Bft) 100,00 %
18.02.2018 06:10 -2,1 C -2,2 C -4,4 C 94 % 1 lf 1025,4 hPa 0,0 l/m 0 min 0 min 0 W/m 15,8 km/h (3 Bft) 100,00 %
18.02.2018 06:12 -2,1 C -2,2 C -4,4 C 94 % 1 lf 1025,4 hPa 0,0 l/m 0 min 0 min 0 W/m 13,5 km/h (3 Bft) 100,00 %
18.02.2018 06:14 -2,1 C -2,2 C -4,4 C 94 % 1 lf 1025,3 hPa 0,0 l/m 0 min 0 min 0 W/m 20,3 km/h (4 Bft) 97,87 %
18.02.2018 06:16 -2,1 C -2,2 C -4,4 C 94 % 1 lf 1025,3 hPa 0,0 l/m 0 min 0 min 0 W/m 18,0 km/h (3 Bft) 97,87 %
18.02.2018 06:18 -2,1 C -2,2 C -4,4 C 94 % 1 lf 1025,3 hPa 0,0 l/m 0 min 0 min 0 W/m 15,8 km/h (3 Bft) 97,87 %
18.02.2018 06:20 -2,1 C -2,2 C -4,4 C 94 % 1 lf 1025,3 hPa 0,0 l/m 0 min 0 min 0 W/m 20,3 km/h (4 Bft) 100,00 %
18.02.2018 06:22 -2,1 C -2,2 C -4,4 C 93 % 1 lf 1025,3 hPa 0,0 l/m 0 min 0 min 0 W/m 15,8 km/h (3 Bft) 100,00 %
18.02.2018 06:24 -2,1 C -2,2 C -4,4 C 93 % 1 lf 1025,3 hPa 0,0 l/m 0 min 0 min 0 W/m 13,5 km/h (3 Bft) 100,00 %
18.02.2018 06:26 -2,1 C -2,2 C -4,4 C 93 % 1 lf 1025,3 hPa 0,0 l/m 0 min 0 min 0 W/m 15,8 km/h (3 Bft) 100,00 %
18.02.2018 06:28 -2,1 C -2,2 C -4,4 C 93 % 1 lf 1025,3 hPa 0,0 l/m 0 min 0 min 0 W/m 15,8 km/h (3 Bft) 100,00 %
18.02.2018 06:30 -2,1 C -2,2 C -4,4 C 93 % 1 lf 1025,3 hPa 0,0 l/m 0 min 0 min 0 W/m 11,3 km/h (2 Bft) 95,65 %
18.02.2018 06:32 -2,1 C -2,2 C -4,4 C 93 % 1 lf 1025,3 hPa 0,0 l/m 0 min 0 min 0 W/m 22,5 km/h (4 Bft) 97,87 %
18.02.2018 06:34 -2,1 C -2,2 C -4,4 C 93 % 1 lf 1025,3 hPa 0,0 l/m 0 min 0 min 0 W/m 18,0 km/h (3 Bft) 95,74 %
18.02.2018 06:36 -2,1 C -2,2 C -4,4 C 93 % 1 lf 1025,3 hPa 0,0 l/m 0 min 0 min 0 W/m 18,0 km/h (3 Bft) 95,74 %
18.02.2018 06:38 -2,1 C -2,2 C -4,4 C 93 % 1 lf 1025,3 hPa 0,0 l/m 0 min 0 min 0 W/m 18,0 km/h (3 Bft) 95,74 %
18.02.2018 06:40 -2,0 C -2,2 C -4,4 C 93 % 1 lf 1025,3 hPa 0,0 l/m 0 min 0 min 0 W/m 13,5 km/h (3 Bft) 95,74 %
18.02.2018 06:42 -2,0 C -2,2 C -4,4 C 93 % 1 lf 1025,3 hPa 0,0 l/m 0 min 0 min 0 W/m 15,8 km/h (3 Bft) 95,65 %
18.02.2018 06:44 -2,0 C -2,2 C -4,4 C 93 % 1 lf 1025,3 hPa 0,0 l/m 0 min 0 min 0 W/m 18,0 km/h (3 Bft) 91,49 %
18.02.2018 06:46 -2,0 C -2,2 C -4,4 C 93 % 1 lf 1025,3 hPa 0,0 l/m 0 min 0 min 0 W/m 13,5 km/h (3 Bft) 93,62 %
18.02.2018 06:48 -2,0 C -2,2 C -4,4 C 93 % 1 lf 1025,3 hPa 0,0 l/m 0 min 0 min 0 W/m 20,3 km/h (4 Bft) 93,62 %
18.02.2018 06:50 -2,0 C -2,2 C -4,4 C 93 % 1 lf 1025,3 hPa 0,0 l/m 0 min 0 min 0 W/m 11,3 km/h (2 Bft) 91,49 %
18.02.2018 06:52 -2,0 C -2,2 C -4,4 C 93 % 1 lf 1025,3 hPa 0,0 l/m 0 min 0 min 0 W/m 15,8 km/h (3 Bft) 93,62 %
18.02.2018 06:54 -2,0 C -2,2 C -4,4 C 93 % 1 lf 1025,3 hPa 0,0 l/m 0 min 0 min 0 W/m 13,5 km/h (3 Bft) 91,67 %
18.02.2018 06:56 -2,0 C -2,2 C -4,4 C 93 % 1 lf 1025,3 hPa 0,0 l/m 0 min 0 min 0 W/m 13,5 km/h (3 Bft) 91,49 %
18.02.2018 06:58 -2,0 C -2,2 C -4,4 C 93 % 1 lf 1025,3 hPa 0,0 l/m 0 min 0 min 0 W/m 13,5 km/h (3 Bft) 91,30 %
18.02.2018 07:00 -2,0 C -2,2 C -4,4 C 93 % 1 lf 1025,2 hPa 0,0 l/m 0 min 0 min 0 W/m 18,0 km/h (3 Bft) 93,62 %
18.02.2018 07:02 -2,0 C -2,2 C -4,4 C 93 % 1 lf 1025,3 hPa 0,0 l/m 0 min 0 min 0 W/m 15,8 km/h (3 Bft) 87,23 %
18.02.2018 07:04 -2,0 C -2,2 C -4,4 C 93 % 1 lf 1025,3 hPa 0,0 l/m 0 min 0 min 0 W/m 18,0 km/h (3 Bft) 91,49 %
18.02.2018 07:06 -2,0 C -2,2 C -4,4 C 93 % 1 lf 1025,2 hPa 0,0 l/m 0 min 0 min 0 W/m 20,3 km/h (4 Bft) 87,23 %
18.02.2018 07:08 -2,0 C -2,2 C -4,4 C 93 % 1 lf 1025,2 hPa 0,0 l/m 0 min 0 min 0 W/m 18,0 km/h (3 Bft) 93,62 %
18.02.2018 07:10 -2,0 C -2,2 C -4,4 C 93 % 1 lf 1025,2 hPa 0,0 l/m 0 min 0 min 0 W/m 18,0 km/h (3 Bft) 93,48 %
18.02.2018 07:12 -2,0 C -2,2 C -4,4 C 93 % 1 lf 1025,2 hPa 0,0 l/m 0 min 0 min 0 W/m 13,5 km/h (3 Bft) 93,62 %
18.02.2018 07:14 -2,1 C -2,2 C -4,4 C 92 % 1 lf 1025,2 hPa 0,0 l/m 0 min 0 min 0 W/m 20,3 km/h (4 Bft) 93,62 %
18.02.2018 07:16 -2,1 C -2,2 C -4,4 C 92 % 1 lf 1025,2 hPa 0,0 l/m 0 min 0 min 0 W/m 18,0 km/h (3 Bft) 95,74 %
18.02.2018 07:18 -2,1 C -2,2 C -4,4 C 92 % 1 lf 1025,2 hPa 0,0 l/m 0 min 0 min 0 W/m 15,8 km/h (3 Bft) 93,62 %
18.02.2018 07:20 -2,1 C -2,2 C -4,4 C 92 % 1 lf 1025,3 hPa 0,0 l/m 0 min 0 min 0 W/m 13,5 km/h (3 Bft) 86,21 %
18.02.2018 07:22 -2,1 C -2,2 C -4,4 C 92 % 1 lf 1025,3 hPa 0,0 l/m 0 min 0 min 0 W/m 11,3 km/h (2 Bft) 88,57 %
18.02.2018 07:24 -2,1 C -2,2 C -4,4 C 92 % 1 lf 1025,3 hPa 0,0 l/m 0 min 0 min 0 W/m 15,8 km/h (3 Bft) 91,53 %
18.02.2018 07:26 -2,1 C -2,2 C -4,4 C 92 % 1 lf 1025,3 hPa 0,0 l/m 0 min 0 min 0 W/m 18,0 km/h (3 Bft) 91,49 %
18.02.2018 07:28 -2,1 C -2,2 C -4,4 C 92 % 1 lf 1025,3 hPa 0,0 l/m 0 min 0 min 0 W/m 13,5 km/h (3 Bft) 93,48 %
18.02.2018 07:30 -2,1 C -2,2 C -4,4 C 92 % 1 lf 1025,3 hPa 0,0 l/m 0 min 0 min 0 W/m 13,5 km/h (3 Bft) 93,62 %
18.02.2018 07:32 -2,1 C -2,2 C -4,4 C 92 % 1 lf 1025,3 hPa 0,0 l/m 0 min 0 min 0 W/m 18,0 km/h (3 Bft) 91,49 %
18.02.2018 07:34 -2,1 C -2,2 C -4,4 C 92 % 1 lf 1025,3 hPa 0,0 l/m 0 min 0 min 0 W/m 11,3 km/h (2 Bft) 95,74 %
18.02.2018 07:36 -2,1 C -2,2 C -4,4 C 92 % 1 lf 1025,4 hPa 0,0 l/m 0 min 0 min 3 W/m 18,0 km/h (3 Bft) 91,49 %
18.02.2018 07:38 -2,2 C -2,2 C -4,4 C 92 % 1 lf 1025,3 hPa 0,0 l/m 0 min 0 min 5 W/m 18,0 km/h (3 Bft) 95,74 %
18.02.2018 07:40 -2,2 C -2,2 C -4,4 C 92 % 1 lf 1025,4 hPa 0,0 l/m 0 min 0 min 5 W/m 15,8 km/h (3 Bft) 97,83 %
18.02.2018 07:42 -2,2 C -2,2 C -4,4 C 92 % 1 lf 1025,4 hPa 0,0 l/m 0 min 0 min 6 W/m 11,3 km/h (2 Bft) 100,00 %
18.02.2018 07:44 -2,2 C -2,2 C -4,4 C 92 % 1 lf 1025,4 hPa 0,0 l/m 0 min 0 min 7 W/m 15,8 km/h (3 Bft) 100,00 %
18.02.2018 07:46 -2,2 C -2,2 C -4,4 C 92 % 1 lf 1025,3 hPa 0,0 l/m 0 min 0 min 8 W/m 18,0 km/h (3 Bft) 97,87 %
18.02.2018 07:48 -2,2 C -2,2 C -4,4 C 92 % 1 lf 1025,3 hPa 0,0 l/m 0 min 0 min 9 W/m 18,0 km/h (3 Bft) 97,87 %
18.02.2018 07:50 -2,2 C -2,2 C -4,4 C 92 % 1 lf 1025,3 hPa 0,0 l/m 0 min 0 min 11 W/m 13,5 km/h (3 Bft) 100,00 %
18.02.2018 07:52 -2,2 C -2,2 C -4,4 C 92 % 1 lf 1025,4 hPa 0,0 l/m 0 min 0 min 12 W/m 13,5 km/h (3 Bft) 100,00 %
18.02.2018 07:54 -2,2 C -2,2 C -4,4 C 92 % 1 lf 1025,4 hPa 0,0 l/m 0 min 0 min 12 W/m 11,3 km/h (2 Bft) 95,74 %
18.02.2018 07:56 -2,2 C -2,2 C -4,4 C 92 % 1 lf 1025,4 hPa 0,0 l/m 0 min 0 min 14 W/m 15,8 km/h (3 Bft) 100,00 %
18.02.2018 07:58 -2,2 C -2,2 C -4,4 C 92 % 1 lf 1025,4 hPa 0,0 l/m 0 min 0 min 16 W/m 15,8 km/h (3 Bft) 100,00 %
18.02.2018 08:00 -2,2 C -2,2 C -4,4 C 92 % 1 lf 1025,4 hPa 0,0 l/m 0 min 0 min 17 W/m 13,5 km/h (3 Bft) 97,87 %
18.02.2018 08:02 -2,2 C -2,2 C -4,4 C 92 % 1 lf 1025,4 hPa 0,0 l/m 0 min 0 min 19 W/m 11,3 km/h (2 Bft) 97,87 %
18.02.2018 08:04 -2,2 C -2,2 C -4,4 C 92 % 1 lf 1025,4 hPa 0,0 l/m 0 min 0 min 21 W/m 11,3 km/h (2 Bft) 100,00 %
18.02.2018 08:06 -2,2 C -2,2 C -4,4 C 92 % 1 lf 1025,4 hPa 0,0 l/m 2 min 0 min 25 W/m 15,8 km/h (3 Bft) 97,92 %
18.02.2018 08:08 -2,2 C -2,2 C -4,4 C 92 % 1 lf 1025,4 hPa 0,0 l/m 2 min 0 min 27 W/m 15,8 km/h (3 Bft) 100,00 %
18.02.2018 08:10 -2,2 C -2,2 C -4,4 C 92 % 1 lf 1025,4 hPa 0,0 l/m 2 min 0 min 31 W/m 11,3 km/h (2 Bft) 100,00 %
18.02.2018 08:12 -2,2 C -2,2 C -4,4 C 92 % 1 lf 1025,5 hPa 0,0 l/m 2 min 0 min 33 W/m 11,3 km/h (2 Bft) 97,87 %
18.02.2018 08:14 -2,2 C -2,2 C -4,4 C 92 % 1 lf 1025,5 hPa 0,0 l/m 2 min 0 min 37 W/m 15,8 km/h (3 Bft) 97,83 %
18.02.2018 08:16 -2,2 C -2,2 C -4,4 C 92 % 1 lf 1025,5 hPa 0,0 l/m 2 min 0 min 40 W/m 9,0 km/h (2 Bft) 97,87 %
18.02.2018 08:18 -2,2 C -2,2 C -4,4 C 92 % 1 lf 1025,4 hPa 0,0 l/m 2 min 0 min 44 W/m 15,8 km/h (3 Bft) 97,87 %
18.02.2018 08:20 -2,3 C -2,2 C -4,4 C 92 % 1 lf 1025,5 hPa 0,0 l/m 2 min 0 min 47 W/m 18,0 km/h (3 Bft) 100,00 %
18.02.2018 08:22 -2,2 C -2,2 C -4,4 C 92 % 1 lf 1025,5 hPa 0,0 l/m 2 min 0 min 51 W/m 13,5 km/h (3 Bft) 100,00 %
18.02.2018 08:24 -2,2 C -2,2 C -3,9 C 92 % 1 lf 1025,5 hPa 0,0 l/m 2 min 0 min 54 W/m 13,5 km/h (3 Bft) 100,00 %
18.02.2018 08:26 -2,2 C -2,2 C -3,9 C 92 % 1 lf 1025,5 hPa 0,0 l/m 2 min 0 min 58 W/m 18,0 km/h (3 Bft) 97,83 %
18.02.2018 08:28 -2,2 C -2,2 C -3,9 C 92 % 1 lf 1025,5 hPa 0,0 l/m 2 min 0 min 63 W/m 15,8 km/h (3 Bft) 93,62 %
18.02.2018 08:30 -2,2 C -1,7 C -3,9 C 92 % 1 lf 1025,5 hPa 0,0 l/m 2 min 0 min 67 W/m 15,8 km/h (3 Bft) 97,87 %
18.02.2018 08:32 -2,2 C -1,7 C -3,9 C 92 % 1 lf 1025,5 hPa 0,0 l/m 2 min 0 min 71 W/m 15,8 km/h (3 Bft) 97,87 %
18.02.2018 08:34 -2,2 C -1,7 C -3,9 C 92 % 1 lf 1025,5 hPa 0,0 l/m 2 min 0 min 75 W/m 15,8 km/h (3 Bft) 95,74 %
18.02.2018 08:36 -2,1 C -1,7 C -3,9 C 92 % 1 lf 1025,4 hPa 0,0 l/m 2 min 0 min 80 W/m 15,8 km/h (3 Bft) 97,87 %
18.02.2018 08:38 -2,1 C -1,7 C -3,9 C 92 % 1 lf 1025,4 hPa 0,0 l/m 2 min 0 min 85 W/m 11,3 km/h (2 Bft) 95,65 %
18.02.2018 08:40 -2,1 C -1,7 C -3,9 C 92 % 1 lf 1025,4 hPa 0,0 l/m 2 min 0 min 91 W/m 15,8 km/h (3 Bft) 97,87 %
18.02.2018 08:42 -2,1 C -1,7 C -3,9 C 92 % 1 lf 1025,4 hPa 0,0 l/m 2 min 0 min 95 W/m 15,8 km/h (3 Bft) 93,62 %
18.02.2018 08:44 -2,1 C -1,7 C -3,9 C 92 % 1 lf 1025,4 hPa 0,0 l/m 2 min 0 min 101 W/m 15,8 km/h (3 Bft) 97,87 %
18.02.2018 08:46 -2,1 C -1,7 C -3,9 C 92 % 1 lf 1025,4 hPa 0,0 l/m 2 min 0 min 105 W/m 15,8 km/h (3 Bft) 95,74 %
18.02.2018 08:48 -2,1 C -1,7 C -3,9 C 92 % 1 lf 1025,4 hPa 0,0 l/m 2 min 0 min 111 W/m 15,8 km/h (3 Bft) 97,87 %
18.02.2018 08:50 -2,0 C -1,7 C -3,9 C 92 % 1 lf 1025,4 hPa 0,0 l/m 2 min 0 min 116 W/m 15,8 km/h (3 Bft) 95,74 %
18.02.2018 08:52 -2,0 C -1,7 C -3,9 C 93 % 1 lf 1025,4 hPa 0,0 l/m 2 min 0 min 121 W/m 15,8 km/h (3 Bft) 97,83 %
18.02.2018 08:54 -2,0 C -1,7 C -3,9 C 93 % 1 lf 1025,4 hPa 0,0 l/m 2 min 0 min 125 W/m 18,0 km/h (3 Bft) 97,87 %
18.02.2018 08:56 -1,9 C -1,1 C -3,9 C 93 % 1 lf 1025,4 hPa 0,0 l/m 2 min 0 min 131 W/m 15,8 km/h (3 Bft) 97,87 %
18.02.2018 08:58 -1,9 C -1,1 C -3,9 C 93 % 1 lf 1025,4 hPa 0,0 l/m 2 min 0 min 136 W/m 18,0 km/h (3 Bft) 95,74 %
18.02.2018 09:00 -1,9 C -1,1 C -3,3 C 93 % 1 lf 1025,4 hPa 0,0 l/m 2 min 0 min 142 W/m 11,3 km/h (2 Bft) 97,87 %
18.02.2018 09:02 -1,9 C -1,1 C -3,3 C 93 % 1 lf 1025,4 hPa 0,0 l/m 2 min 0 min 147 W/m 18,0 km/h (3 Bft) 93,48 %
18.02.2018 09:04 -1,9 C -1,1 C -3,3 C 93 % 1 lf 1025,4 hPa 0,0 l/m 2 min 0 min 152 W/m 15,8 km/h (3 Bft) 93,62 %
18.02.2018 09:08 -1,8 C -1,1 C -3,3 C 93 % 1 lf 1025,4 hPa 0,0 l/m 4 min 0 min 159 W/m 18,0 km/h (3 Bft) 97,87 %
18.02.2018 09:10 -1,7 C -1,1 C -3,3 C 93 % 1 lf 1025,4 hPa 0,0 l/m 2 min 0 min 169 W/m 13,5 km/h (3 Bft) 97,87 %
18.02.2018 09:12 -1,7 C -1,1 C -3,3 C 93 % 1 lf 1025,4 hPa 0,0 l/m 2 min 0 min 176 W/m 18,0 km/h (3 Bft) 100,00 %
18.02.2018 09:14 -1,7 C -0,6 C -3,3 C 93 % 1 lf 1025,4 hPa 0,0 l/m 2 min 0 min 179 W/m 11,3 km/h (2 Bft) 97,87 %
18.02.2018 09:16 -1,6 C -0,6 C -3,3 C 93 % 1 lf 1025,4 hPa 0,0 l/m 2 min 0 min 181 W/m 20,3 km/h (4 Bft) 100,00 %
18.02.2018 09:18 -1,6 C -0,6 C -2,8 C 93 % 1 lf 1025,4 hPa 0,0 l/m 2 min 0 min 183 W/m 11,3 km/h (2 Bft) 97,87 %
18.02.2018 09:20 -1,5 C -0,6 C -2,8 C 93 % 1 lf 1025,4 hPa 0,0 l/m 2 min 0 min 186 W/m 20,3 km/h (4 Bft) 97,87 %
18.02.2018 09:22 -1,4 C 0,0 C -2,8 C 93 % 1 lf 1025,4 hPa 0,0 l/m 2 min 0 min 191 W/m 18,0 km/h (3 Bft) 100,00 %
18.02.2018 09:24 -1,4 C 1,1 C -2,8 C 93 % 1 lf 1025,4 hPa 0,0 l/m 2 min 0 min 194 W/m 13,5 km/h (3 Bft) 100,00 %
18.02.2018 09:26 -1,3 C 2,8 C -2,8 C 93 % 1 lf 1025,4 hPa 0,0 l/m 2 min 0 min 198 W/m 13,5 km/h (3 Bft) 100,00 %
18.02.2018 09:28 -1,3 C 3,3 C -2,8 C 93 % 1 lf 1025,4 hPa 0,0 l/m 2 min 0 min 204 W/m 13,5 km/h (3 Bft) 97,87 %
18.02.2018 09:30 -1,2 C 3,9 C -2,8 C 93 % 1 lf 1025,4 hPa 0,0 l/m 2 min 0 min 209 W/m 20,3 km/h (4 Bft) 97,87 %
18.02.2018 09:32 -1,1 C 4,4 C -2,8 C 93 % 1 lf 1025,4 hPa 0,0 l/m 2 min 0 min 215 W/m 11,3 km/h (2 Bft) 97,87 %
18.02.2018 09:34 -1,1 C 4,4 C -2,8 C 93 % 2 lf 1025,5 hPa 0,0 l/m 2 min 0 min 220 W/m 11,3 km/h (2 Bft) 97,87 %
18.02.2018 09:36 -0,9 C 5,0 C -2,8 C 93 % 2 lf 1025,5 hPa 0,0 l/m 2 min 0 min 224 W/m 18,0 km/h (3 Bft) 93,48 %
18.02.2018 09:38 -0,9 C 3,9 C -2,8 C 93 % 2 lf 1025,5 hPa 0,0 l/m 2 min 0 min 228 W/m 15,8 km/h (3 Bft) 93,62 %
18.02.2018 09:40 -0,8 C 4,4 C -2,2 C 93 % 2 lf 1025,5 hPa 0,0 l/m 2 min 0 min 232 W/m 13,5 km/h (3 Bft) 93,62 %
18.02.2018 09:42 -0,7 C 4,4 C -1,7 C 93 % 2 lf 1025,5 hPa 0,0 l/m 2 min 0 min 236 W/m 18,0 km/h (3 Bft) 93,62 %
18.02.2018 09:44 -0,6 C 4,4 C -1,1 C 93 % 3 lf 1025,5 hPa 0,0 l/m 2 min 0 min 241 W/m 11,3 km/h (2 Bft) 95,74 %
18.02.2018 09:46 -0,4 C 5,0 C -1,1 C 93 % 3 lf 1025,4 hPa 0,0 l/m 2 min 0 min 245 W/m 15,8 km/h (3 Bft) 93,62 %
18.02.2018 09:48 -0,4 C 4,4 C 0,0 C 93 % 3 lf 1025,4 hPa 0,0 l/m 2 min 0 min 250 W/m 18,0 km/h (3 Bft) 95,65 %
18.02.2018 09:50 -0,3 C 5,0 C 0,0 C 93 % 3 lf 1025,4 hPa 0,0 l/m 2 min 0 min 256 W/m 20,3 km/h (4 Bft) 95,74 %
18.02.2018 09:52 -0,2 C 4,4 C 0,6 C 93 % 3 lf 1025,4 hPa 0,2 l/m 2 min 0 min 260 W/m 15,8 km/h (3 Bft) 93,62 %
18.02.2018 09:54 -0,1 C 4,4 C 0,6 C 93 % 3 lf 1025,5 hPa 0,0 l/m 2 min 0 min 264 W/m 20,3 km/h (4 Bft) 93,62 %
18.02.2018 09:56 0,0 C 5,0 C 1,1 C 93 % 4 lf 1025,5 hPa 0,0 l/m 2 min 0 min 267 W/m 11,3 km/h (2 Bft) 95,74 %
18.02.2018 09:58 0,1 C 5,6 C 1,1 C 92 % 8 lf 1025,4 hPa 0,0 l/m 2 min 0 min 271 W/m 18,0 km/h (3 Bft) 93,48 %
18.02.2018 10:00 0,1 C 5,0 C 1,1 C 93 % 11 lf 1025,4 hPa 0,0 l/m 2 min 0 min 276 W/m 20,3 km/h (4 Bft) 93,75 %
18.02.2018 10:02 0,2 C 5,0 C 1,1 C 92 % 12 lf 1025,4 hPa 0,0 l/m 2 min 0 min 280 W/m 20,3 km/h (4 Bft) 95,65 %
18.02.2018 10:04 0,3 C 5,6 C 0,6 C 92 % 13 lf 1025,4 hPa 0,0 l/m 2 min 0 min 284 W/m 15,8 km/h (3 Bft) 95,74 %
18.02.2018 10:06 0,4 C 5,6 C 0,6 C 92 % 14 lf 1025,5 hPa 0,0 l/m 2 min 0 min 287 W/m 20,3 km/h (4 Bft) 89,36 %
18.02.2018 10:08 0,5 C 5,6 C 0,6 C 92 % 14 lf 1025,4 hPa 0,0 l/m 2 min 0 min 291 W/m 18,0 km/h (3 Bft) 93,62 %
18.02.2018 10:10 0,5 C 6,1 C 0,6 C 91 % 14 lf 1025,5 hPa 0,0 l/m 2 min 0 min 295 W/m 15,8 km/h (3 Bft) 93,48 %
18.02.2018 10:12 0,5 C 6,7 C 0,6 C 91 % 14 lf 1025,5 hPa 0,0 l/m 2 min 0 min 298 W/m 11,3 km/h (2 Bft) 87,23 %
18.02.2018 10:14 0,7 C 6,1 C 0,0 C 91 % 14 lf 1025,5 hPa 0,0 l/m 2 min 0 min 303 W/m 15,8 km/h (3 Bft) 93,62 %
18.02.2018 10:16 0,7 C 7,2 C 0,0 C 91 % 14 lf 1025,5 hPa 0,0 l/m 2 min 0 min 308 W/m 18,0 km/h (3 Bft) 95,74 %
18.02.2018 10:18 0,8 C 6,1 C -0,6 C 90 % 13 lf 1025,5 hPa 0,0 l/m 2 min 0 min 311 W/m 20,3 km/h (4 Bft) 93,62 %
18.02.2018 10:20 0,9 C 6,7 C -0,6 C 90 % 12 lf 1025,6 hPa 0,0 l/m 2 min 0 min 316 W/m 18,0 km/h (3 Bft) 97,87 %
18.02.2018 10:22 1,0 C 5,6 C -0,6 C 90 % 9 lf 1025,6 hPa 0,0 l/m 2 min 0 min 319 W/m 18,0 km/h (3 Bft) 97,83 %
18.02.2018 10:24 1,0 C 5,6 C 0,0 C 90 % 4 lf 1025,6 hPa 0,0 l/m 2 min 0 min 322 W/m 15,8 km/h (3 Bft) 95,74 %
18.02.2018 10:26 1,1 C 5,6 C 0,0 C 89 % 2 lf 1025,6 hPa 0,0 l/m 2 min 0 min 324 W/m 20,3 km/h (4 Bft) 97,87 %
18.02.2018 10:28 1,1 C 5,6 C 0,0 C 89 % 0 lf 1025,6 hPa 0,0 l/m 2 min 0 min 329 W/m 20,3 km/h (4 Bft) 93,62 %
18.02.2018 10:30 1,2 C 6,1 C 0,0 C 88 % 0 lf 1025,6 hPa 0,0 l/m 2 min 0 min 333 W/m 18,0 km/h (3 Bft) 97,87 %
18.02.2018 10:32 1,2 C 6,1 C 0,0 C 88 % 0 lf 1025,6 hPa 0,0 l/m 2 min 0 min 336 W/m 15,8 km/h (3 Bft) 97,83 %
18.02.2018 10:34 1,3 C 6,7 C 0,0 C 88 % 0 lf 1025,6 hPa 0,0 l/m 2 min 0 min 339 W/m 18,0 km/h (3 Bft) 95,74 %
18.02.2018 10:36 1,3 C 6,1 C 0,0 C 88 % 0 lf 1025,6 hPa 0,0 l/m 2 min 0 min 339 W/m 15,8 km/h (3 Bft) 97,87 %
18.02.2018 10:38 1,4 C 7,2 C 0,0 C 87 % 0 lf 1025,6 hPa 0,0 l/m 2 min 0 min 343 W/m 15,8 km/h (3 Bft) 95,74 %
18.02.2018 10:40 1,4 C 8,3 C 0,0 C 87 % 0 lf 1025,6 hPa 0,0 l/m 2 min 0 min 342 W/m 15,8 km/h (3 Bft) 95,74 %
18.02.2018 10:42 1,6 C 7,8 C 0,6 C 87 % 0 lf 1025,7 hPa 0,0 l/m 2 min 0 min 342 W/m 18,0 km/h (3 Bft) 97,87 %
18.02.2018 10:44 1,7 C 7,2 C 0,6 C 87 % 0 lf 1025,8 hPa 0,0 l/m 2 min 0 min 344 W/m 15,8 km/h (3 Bft) 97,87 %
18.02.2018 10:46 1,7 C 7,8 C 0,6 C 87 % 0 lf 1025,8 hPa 0,0 l/m 2 min 0 min 343 W/m 18,0 km/h (3 Bft) 97,83 %
18.02.2018 10:48 1,8 C 8,3 C 0,6 C 87 % 0 lf 1025,7 hPa 0,0 l/m 2 min 0 min 340 W/m 20,3 km/h (4 Bft) 100,00 %
18.02.2018 10:50 1,8 C 8,3 C 0,6 C 86 % 0 lf 1025,8 hPa 0,0 l/m 2 min 0 min 347 W/m 18,0 km/h (3 Bft) 97,87 %
18.02.2018 10:52 1,9 C 6,7 C 0,6 C 86 % 0 lf 1025,7 hPa 0,0 l/m 2 min 0 min 352 W/m 20,3 km/h (4 Bft) 100,00 %
18.02.2018 10:54 1,9 C 6,1 C 0,6 C 86 % 0 lf 1025,7 hPa 0,0 l/m 2 min 0 min 356 W/m 20,3 km/h (4 Bft) 93,62 %
18.02.2018 10:56 2,0 C 6,7 C 0,6 C 85 % 0 lf 1025,7 hPa 0,0 l/m 2 min 0 min 364 W/m 20,3 km/h (4 Bft) 100,00 %
18.02.2018 10:58 2,1 C 6,7 C 0,6 C 85 % 0 lf 1025,7 hPa 0,0 l/m 2 min 0 min 364 W/m 18,0 km/h (3 Bft) 100,00 %
18.02.2018 11:00 2,1 C 6,7 C 0,6 C 85 % 0 lf 1025,7 hPa 0,0 l/m 2 min 0 min 357 W/m 15,8 km/h (3 Bft) 100,00 %
18.02.2018 11:02 2,1 C 6,7 C 0,6 C 85 % 0 lf 1025,7 hPa 0,0 l/m 2 min 0 min 339 W/m 11,3 km/h (2 Bft) 93,62 %
18.02.2018 11:04 2,2 C 6,7 C 0,6 C 85 % 0 lf 1025,7 hPa 0,0 l/m 2 min 0 min 371 W/m 18,0 km/h (3 Bft) 100,00 %
18.02.2018 11:06 2,2 C 6,7 C 0,6 C 84 % 0 lf 1025,7 hPa 0,0 l/m 2 min 0 min 381 W/m 20,3 km/h (4 Bft) 100,00 %
18.02.2018 11:08 2,2 C 7,2 C 0,6 C 84 % 0 lf 1025,7 hPa 0,0 l/m 2 min 0 min 378 W/m 18,0 km/h (3 Bft) 100,00 %
18.02.2018 11:10 2,3 C 7,2 C 0,6 C 84 % 0 lf 1025,7 hPa 0,0 l/m 2 min 0 min 388 W/m 18,0 km/h (3 Bft) 97,83 %
18.02.2018 11:12 2,3 C 7,8 C 0,6 C 84 % 0 lf 1025,7 hPa 0,0 l/m 2 min 0 min 387 W/m 15,8 km/h (3 Bft) 97,87 %
18.02.2018 11:14 2,3 C 7,2 C 0,6 C 84 % 0 lf 1025,7 hPa 0,0 l/m 2 min 0 min 392 W/m 15,8 km/h (3 Bft) 100,00 %
18.02.2018 11:16 2,4 C 8,3 C 1,1 C 84 % 0 lf 1025,7 hPa 0,0 l/m 2 min 0 min 394 W/m 18,0 km/h (3 Bft) 97,87 %
18.02.2018 11:18 2,4 C 7,8 C 1,1 C 84 % 0 lf 1025,7 hPa 0,0 l/m 2 min 0 min 391 W/m 18,0 km/h (3 Bft) 97,87 %
18.02.2018 11:20 2,5 C 8,3 C 1,1 C 84 % 0 lf 1025,7 hPa 0,0 l/m 2 min 0 min 405 W/m 18,0 km/h (3 Bft) 100,00 %
18.02.2018 11:22 2,5 C 7,8 C 1,1 C 84 % 0 lf 1025,8 hPa 0,0 l/m 2 min 0 min 399 W/m 20,3 km/h (4 Bft) 100,00 %
18.02.2018 11:24 2,6 C 7,2 C 1,1 C 83 % 0 lf 1025,8 hPa 0,0 l/m 2 min 0 min 414 W/m 20,3 km/h (4 Bft) 96,36 %
18.02.2018 11:26 2,6 C 7,8 C 1,1 C 83 % 0 lf 1025,7 hPa 0,0 l/m 2 min 0 min 412 W/m 15,8 km/h (3 Bft) 97,87 %
18.02.2018 11:28 2,7 C 8,3 C 1,1 C 83 % 0 lf 1025,6 hPa 0,0 l/m 2 min 0 min 420 W/m 15,8 km/h (3 Bft) 100,00 %
18.02.2018 11:30 2,7 C 7,8 C 1,1 C 83 % 0 lf 1025,6 hPa 0,0 l/m 2 min 0 min 404 W/m 18,0 km/h (3 Bft) 97,87 %
18.02.2018 11:32 2,8 C 7,8 C 1,7 C 83 % 0 lf 1025,6 hPa 0,0 l/m 2 min 0 min 396 W/m 13,5 km/h (3 Bft) 100,00 %
18.02.2018 11:34 2,8 C 8,3 C 1,7 C 83 % 0 lf 1025,7 hPa 0,0 l/m 2 min 0 min 422 W/m 15,8 km/h (3 Bft) 97,83 %
18.02.2018 11:36 2,9 C 8,3 C 2,2 C 83 % 0 lf 1025,7 hPa 0,0 l/m 2 min 0 min 389 W/m 15,8 km/h (3 Bft) 95,74 %
18.02.2018 11:38 2,9 C 7,8 C 2,2 C 83 % 0 lf 1025,8 hPa 0,0 l/m 2 min 0 min 367 W/m 15,8 km/h (3 Bft) 100,00 %
18.02.2018 11:40 3,0 C 7,2 C 2,2 C 83 % 0 lf 1025,8 hPa 0,0 l/m 2 min 0 min 330 W/m 15,8 km/h (3 Bft) 100,00 %
18.02.2018 11:42 3,1 C 8,3 C 2,8 C 83 % 0 lf 1025,8 hPa 0,0 l/m 2 min 0 min 375 W/m 11,3 km/h (2 Bft) 97,87 %
18.02.2018 11:44 3,1 C 8,3 C 3,3 C 83 % 0 lf 1025,8 hPa 0,0 l/m 2 min 0 min 412 W/m 13,5 km/h (3 Bft) 93,48 %
18.02.2018 11:46 3,2 C 7,8 C 3,3 C 83 % 0 lf 1025,8 hPa 0,0 l/m 2 min 0 min 304 W/m 13,5 km/h (3 Bft) 97,87 %
18.02.2018 11:48 3,2 C 8,9 C 3,9 C 83 % 0 lf 1025,9 hPa 0,0 l/m 2 min 0 min 312 W/m 11,3 km/h (2 Bft) 100,00 %
18.02.2018 11:50 3,3 C 9,4 C 3,9 C 83 % 0 lf 1025,9 hPa 0,0 l/m 2 min 0 min 406 W/m 15,8 km/h (3 Bft) 97,87 %
18.02.2018 11:52 3,3 C 10,0 C 4,4 C 83 % 0 lf 1025,8 hPa 0,0 l/m 2 min 0 min 438 W/m 18,0 km/h (3 Bft) 95,74 %
18.02.2018 11:54 3,4 C 10,0 C 4,4 C 83 % 0 lf 1025,9 hPa 0,0 l/m 2 min 0 min 413 W/m 18,0 km/h (3 Bft) 95,74 %
18.02.2018 11:56 3,5 C 10,0 C 3,9 C 82 % 0 lf 1025,9 hPa 0,0 l/m 2 min 0 min 444 W/m 18,0 km/h (3 Bft) 95,65 %
18.02.2018 11:58 3,6 C 10,0 C 3,9 C 82 % 0 lf 1025,9 hPa 0,0 l/m 2 min 0 min 437 W/m 15,8 km/h (3 Bft) 93,62 %
18.02.2018 12:00 3,6 C 10,0 C 4,4 C 82 % 0 lf 1025,8 hPa 0,0 l/m 2 min 0 min 448 W/m 9,0 km/h (2 Bft) 91,49 %
18.02.2018 12:02 3,7 C 10,0 C 4,4 C 82 % 0 lf 1025,8 hPa 0,0 l/m 2 min 0 min 449 W/m 15,8 km/h (3 Bft) 93,62 %
18.02.2018 12:04 3,8 C 10,0 C 4,4 C 82 % 0 lf 1025,8 hPa 0,0 l/m 2 min 0 min 446 W/m 15,8 km/h (3 Bft) 95,74 %
18.02.2018 12:08 3,9 C 10,0 C 3,9 C 81 % 0 lf 1025,8 hPa 0,0 l/m 4 min 0 min 449 W/m 18,0 km/h (3 Bft) 94,19 %
18.02.2018 12:10 4,0 C 9,4 C 3,3 C 81 % 0 lf 1025,7 hPa 0,0 l/m 2 min 0 min 452 W/m 11,3 km/h (2 Bft) 91,30 %
18.02.2018 12:12 4,1 C 10,0 C 3,3 C 81 % 0 lf 1025,7 hPa 0,0 l/m 2 min 0 min 452 W/m 15,8 km/h (3 Bft) 93,62 %
18.02.2018 12:14 4,2 C 11,7 C 3,3 C 81 % 0 lf 1025,7 hPa 0,0 l/m 2 min 0 min 454 W/m 13,5 km/h (3 Bft) 95,74 %
18.02.2018 12:16 4,2 C 11,1 C 3,3 C 81 % 0 lf 1025,7 hPa 0,0 l/m 2 min 0 min 458 W/m 11,3 km/h (2 Bft) 93,62 %
18.02.2018 12:18 4,3 C 12,2 C 3,9 C 81 % 0 lf 1025,7 hPa 0,0 l/m 2 min 0 min 457 W/m 15,8 km/h (3 Bft) 91,49 %
18.02.2018 12:20 4,4 C 12,2 C 3,3 C 81 % 0 lf 1025,7 hPa 0,0 l/m 2 min 0 min 454 W/m 9,0 km/h (2 Bft) 95,08 %
18.02.2018 12:22 4,5 C 12,2 C 3,9 C 81 % 0 lf 1025,6 hPa 0,0 l/m 2 min 0 min 454 W/m 11,3 km/h (2 Bft) 85,71 %
18.02.2018 12:24 4,6 C 11,7 C 3,9 C 80 % 0 lf 1025,6 hPa 0,0 l/m 2 min 0 min 456 W/m 15,8 km/h (3 Bft) 95,74 %
18.02.2018 12:26 4,7 C 11,7 C 3,9 C 80 % 0 lf 1025,6 hPa 0,0 l/m 2 min 0 min 454 W/m 15,8 km/h (3 Bft) 95,74 %
18.02.2018 12:28 4,8 C 12,2 C 3,3 C 80 % 0 lf 1025,6 hPa 0,0 l/m 2 min 0 min 456 W/m 11,3 km/h (2 Bft) 95,74 %
18.02.2018 12:30 4,9 C 12,8 C 3,3 C 79 % 0 lf 1025,6 hPa 0,0 l/m 2 min 0 min 456 W/m 15,8 km/h (3 Bft) 95,74 %
18.02.2018 12:32 5,0 C 12,8 C 3,3 C 79 % 0 lf 1025,6 hPa 0,0 l/m 2 min 0 min 452 W/m 15,8 km/h (3 Bft) 97,87 %
18.02.2018 12:34 5,1 C 13,9 C 3,9 C 79 % 0 lf 1025,5 hPa 0,0 l/m 2 min 0 min 455 W/m 11,3 km/h (2 Bft) 93,48 %
18.02.2018 12:36 5,2 C 13,9 C 3,9 C 79 % 0 lf 1025,5 hPa 0,0 l/m 2 min 0 min 455 W/m 18,0 km/h (3 Bft) 97,87 %
18.02.2018 12:38 5,2 C 13,3 C 3,9 C 78 % 0 lf 1025,5 hPa 0,0 l/m 2 min 0 min 449 W/m 13,5 km/h (3 Bft) 97,87 %
18.02.2018 12:40 5,3 C 12,8 C 3,9 C 78 % 0 lf 1025,5 hPa 0,0 l/m 2 min 0 min 447 W/m 11,3 km/h (2 Bft) 97,87 %
18.02.2018 12:42 5,4 C 12,2 C 3,9 C 78 % 0 lf 1025,5 hPa 0,0 l/m 2 min 0 min 454 W/m 11,3 km/h (2 Bft) 97,87 %
18.02.2018 12:44 5,5 C 12,8 C 3,9 C 78 % 0 lf 1025,6 hPa 0,0 l/m 2 min 0 min 452 W/m 13,5 km/h (3 Bft) 93,62 %
18.02.2018 12:46 5,6 C 13,3 C 3,9 C 77 % 0 lf 1025,5 hPa 0,0 l/m 2 min 0 min 455 W/m 11,3 km/h (2 Bft) 97,87 %
18.02.2018 12:48 5,7 C 13,9 C 3,9 C 77 % 0 lf 1025,5 hPa 0,0 l/m 2 min 0 min 451 W/m 11,3 km/h (2 Bft) 95,65 %
18.02.2018 12:50 5,7 C 13,3 C 3,9 C 77 % 0 lf 1025,5 hPa 0,0 l/m 2 min 0 min 448 W/m 18,0 km/h (3 Bft) 97,87 %
18.02.2018 12:52 5,8 C 12,8 C 3,9 C 77 % 0 lf 1025,5 hPa 0,0 l/m 2 min 0 min 447 W/m 18,0 km/h (3 Bft) 97,87 %
18.02.2018 12:54 5,9 C 12,8 C 4,4 C 77 % 0 lf 1025,5 hPa 0,0 l/m 2 min 0 min 451 W/m 15,8 km/h (3 Bft) 93,62 %
18.02.2018 12:56 5,9 C 12,8 C 4,4 C 76 % 0 lf 1025,4 hPa 0,0 l/m 2 min 0 min 455 W/m 13,5 km/h (3 Bft) 97,87 %
18.02.2018 12:58 6,1 C 12,2 C 4,4 C 76 % 0 lf 1025,4 hPa 0,0 l/m 2 min 0 min 454 W/m 13,5 km/h (3 Bft) 97,83 %
18.02.2018 13:00 6,1 C 12,2 C 4,4 C 76 % 0 lf 1025,3 hPa 0,0 l/m 2 min 0 min 451 W/m 13,5 km/h (3 Bft) 97,87 %
18.02.2018 13:02 6,2 C 11,1 C 4,4 C 75 % 0 lf 1025,3 hPa 0,0 l/m 2 min 0 min 452 W/m 15,8 km/h (3 Bft) 91,49 %
18.02.2018 13:04 6,1 C 11,1 C 4,4 C 75 % 0 lf 1025,2 hPa 0,0 l/m 2 min 0 min 450 W/m 15,8 km/h (3 Bft) 97,44 %
18.02.2018 13:06 6,2 C 12,2 C 4,4 C 75 % 0 lf 1025,2 hPa 0,0 l/m 2 min 0 min 452 W/m 15,8 km/h (3 Bft) 97,87 %
18.02.2018 13:08 6,2 C 12,8 C 4,4 C 75 % 0 lf 1025,2 hPa 0,0 l/m 2 min 0 min 449 W/m 20,3 km/h (4 Bft) 97,87 %
18.02.2018 13:10 6,3 C 12,8 C 4,4 C 75 % 0 lf 1025,1 hPa 0,0 l/m 2 min 0 min 450 W/m 18,0 km/h (3 Bft) 97,87 %
18.02.2018 13:12 6,3 C 12,2 C 4,4 C 75 % 0 lf 1025,1 hPa 0,0 l/m 2 min 0 min 446 W/m 13,5 km/h (3 Bft) 95,65 %
18.02.2018 13:14 6,4 C 12,8 C 4,4 C 75 % 0 lf 1025,0 hPa 0,0 l/m 2 min 0 min 447 W/m 18,0 km/h (3 Bft) 97,87 %
18.02.2018 13:16 6,4 C 13,9 C 4,4 C 75 % 0 lf 1025,0 hPa 0,0 l/m 2 min 0 min 446 W/m 13,5 km/h (3 Bft) 93,62 %
18.02.2018 13:18 6,4 C 13,9 C 4,4 C 75 % 0 lf 1025,0 hPa 0,0 l/m 2 min 0 min 445 W/m 15,8 km/h (3 Bft) 97,87 %
18.02.2018 13:20 6,5 C 13,3 C 4,4 C 75 % 0 lf 1025,0 hPa 0,0 l/m 2 min 0 min 444 W/m 13,5 km/h (3 Bft) 96,55 %
18.02.2018 13:22 6,6 C 12,2 C 4,4 C 74 % 0 lf 1025,0 hPa 0,0 l/m 2 min 0 min 445 W/m 15,8 km/h (3 Bft) 94,44 %
18.02.2018 13:24 6,6 C 12,2 C 4,4 C 74 % 0 lf 1025,0 hPa 0,0 l/m 2 min 0 min 443 W/m 20,3 km/h (4 Bft) 93,48 %
18.02.2018 13:26 6,6 C 11,7 C 4,4 C 74 % 0 lf 1025,0 hPa 0,0 l/m 2 min 0 min 443 W/m 15,8 km/h (3 Bft) 97,87 %
18.02.2018 13:28 6,6 C 11,7 C 4,4 C 74 % 0 lf 1024,9 hPa 0,0 l/m 2 min 0 min 444 W/m 18,0 km/h (3 Bft) 91,49 %
18.02.2018 13:30 6,6 C 11,7 C 4,4 C 74 % 0 lf 1024,9 hPa 0,0 l/m 2 min 0 min 445 W/m 15,8 km/h (3 Bft) 95,74 %
18.02.2018 13:32 6,6 C 11,7 C 4,4 C 74 % 0 lf 1024,9 hPa 0,0 l/m 2 min 0 min 446 W/m 15,8 km/h (3 Bft) 93,62 %
18.02.2018 13:34 6,6 C 11,1 C 5,0 C 74 % 0 lf 1024,9 hPa 0,0 l/m 2 min 0 min 442 W/m 18,0 km/h (3 Bft) 93,48 %
18.02.2018 13:36 6,6 C 12,2 C 5,0 C 74 % 0 lf 1024,8 hPa 0,0 l/m 2 min 0 min 442 W/m 20,3 km/h (4 Bft) 91,49 %
18.02.2018 13:38 6,7 C 12,8 C 5,0 C 74 % 0 lf 1024,8 hPa 0,0 l/m 2 min 0 min 437 W/m 11,3 km/h (2 Bft) 87,23 %
18.02.2018 13:40 6,7 C 13,9 C 5,0 C 74 % 0 lf 1025,0 hPa 0,0 l/m 2 min 0 min 433 W/m 13,5 km/h (3 Bft) 93,62 %
18.02.2018 13:42 6,7 C 13,3 C 5,0 C 74 % 0 lf 1025,1 hPa 0,0 l/m 2 min 0 min 432 W/m 13,5 km/h (3 Bft) 93,62 %
18.02.2018 13:44 6,7 C 12,8 C 5,0 C 74 % 0 lf 1025,1 hPa 0,0 l/m 2 min 0 min 430 W/m 11,3 km/h (2 Bft) 93,62 %
18.02.2018 13:46 6,8 C 13,9 C 5,0 C 73 % 0 lf 1025,1 hPa 0,0 l/m 2 min 0 min 426 W/m 11,3 km/h (2 Bft) 89,13 %
18.02.2018 13:48 6,8 C 13,3 C 5,0 C 73 % 0 lf 1025,1 hPa 0,0 l/m 2 min 0 min 421 W/m 13,5 km/h (3 Bft) 95,74 %
18.02.2018 13:50 6,8 C 12,2 C 5,0 C 73 % 0 lf 1024,8 hPa 0,0 l/m 2 min 0 min 411 W/m 18,0 km/h (3 Bft) 93,22 %
18.02.2018 13:52 6,9 C 12,2 C 5,0 C 73 % 0 lf 1024,8 hPa 0,0 l/m 2 min 0 min 408 W/m 18,0 km/h (3 Bft) 88,57 %
18.02.2018 13:54 6,9 C 12,2 C 5,0 C 73 % 0 lf 1024,8 hPa 0,0 l/m 2 min 0 min 406 W/m 15,8 km/h (3 Bft) 91,49 %
18.02.2018 13:56 6,9 C 12,2 C 5,0 C 73 % 0 lf 1024,8 hPa 0,0 l/m 2 min 0 min 407 W/m 15,8 km/h (3 Bft) 95,74 %
18.02.2018 13:58 6,9 C 12,8 C 5,0 C 73 % 0 lf 1024,8 hPa 0,0 l/m 2 min 0 min 404 W/m 13,5 km/h (3 Bft) 93,48 %
18.02.2018 14:00 7,0 C 12,2 C 5,0 C 73 % 0 lf 1024,7 hPa 0,0 l/m 2 min 0 min 404 W/m 13,5 km/h (3 Bft) 93,62 %
18.02.2018 14:02 7,0 C 11,7 C 5,0 C 73 % 0 lf 1024,7 hPa 0,0 l/m 2 min 0 min 402 W/m 11,3 km/h (2 Bft) 96,00 %
18.02.2018 14:04 7,0 C 12,2 C 5,0 C 73 % 0 lf 1024,7 hPa 0,0 l/m 2 min 0 min 403 W/m 15,8 km/h (3 Bft) 95,74 %
18.02.2018 14:08 7,1 C 12,8 C 5,6 C 73 % 0 lf 1024,6 hPa 0,0 l/m 4 min 0 min 395 W/m 20,3 km/h (4 Bft) 94,68 %
18.02.2018 14:10 7,2 C 13,3 C 5,0 C 73 % 0 lf 1024,6 hPa 0,0 l/m 2 min 0 min 391 W/m 18,0 km/h (3 Bft) 91,30 %
18.02.2018 14:12 7,2 C 12,2 C 5,0 C 73 % 0 lf 1024,5 hPa 0,0 l/m 2 min 0 min 349 W/m 22,5 km/h (4 Bft) 93,62 %
18.02.2018 14:14 7,2 C 11,7 C 5,0 C 73 % 0 lf 1024,6 hPa 0,0 l/m 2 min 0 min 272 W/m 15,8 km/h (3 Bft) 93,62 %
18.02.2018 14:16 7,3 C 10,6 C 5,0 C 72 % 0 lf 1024,6 hPa 0,0 l/m 2 min 0 min 253 W/m 13,5 km/h (3 Bft) 93,62 %
18.02.2018 14:18 7,3 C 11,1 C 5,0 C 72 % 0 lf 1024,5 hPa 0,0 l/m 2 min 0 min 295 W/m 15,8 km/h (3 Bft) 93,62 %
18.02.2018 14:20 7,3 C 11,7 C 5,0 C 72 % 0 lf 1024,4 hPa 0,0 l/m 2 min 0 min 315 W/m 13,5 km/h (3 Bft) 91,38 %
18.02.2018 14:22 7,3 C 11,1 C 5,0 C 72 % 0 lf 1024,5 hPa 0,0 l/m 2 min 0 min 321 W/m 15,8 km/h (3 Bft) 94,29 %
18.02.2018 14:24 7,3 C 11,7 C 5,0 C 72 % 0 lf 1024,4 hPa 0,0 l/m 2 min 0 min 324 W/m 15,8 km/h (3 Bft) 91,49 %
18.02.2018 14:26 7,3 C 12,2 C 5,0 C 72 % 0 lf 1024,4 hPa 0,0 l/m 2 min 0 min 327 W/m 18,0 km/h (3 Bft) 89,36 %
18.02.2018 14:28 7,3 C 12,2 C 5,0 C 72 % 0 lf 1024,4 hPa 0,0 l/m 2 min 0 min 320 W/m 18,0 km/h (3 Bft) 91,49 %
18.02.2018 14:30 7,3 C 12,2 C 5,0 C 72 % 0 lf 1024,4 hPa 0,0 l/m 2 min 0 min 309 W/m 18,0 km/h (3 Bft) 93,62 %
18.02.2018 14:32 7,3 C 11,1 C 5,6 C 72 % 0 lf 1024,4 hPa 0,0 l/m 2 min 0 min 301 W/m 18,0 km/h (3 Bft) 93,62 %
18.02.2018 14:34 7,3 C 11,7 C 5,6 C 72 % 0 lf 1024,4 hPa 0,0 l/m 2 min 0 min 290 W/m 13,5 km/h (3 Bft) 95,65 %
18.02.2018 14:36 7,3 C 10,6 C 5,6 C 72 % 0 lf 1024,4 hPa 0,0 l/m 2 min 0 min 287 W/m 15,8 km/h (3 Bft) 89,36 %
18.02.2018 14:38 7,3 C 10,6 C 5,6 C 71 % 0 lf 1024,5 hPa 0,0 l/m 2 min 0 min 294 W/m 15,8 km/h (3 Bft) 89,36 %
18.02.2018 14:40 7,3 C 11,7 C 5,6 C 72 % 0 lf 1024,5 hPa 0,0 l/m 2 min 0 min 302 W/m 11,3 km/h (2 Bft) 93,62 %
18.02.2018 14:42 7,3 C 11,7 C 5,6 C 72 % 0 lf 1024,4 hPa 0,0 l/m 2 min 0 min 301 W/m 15,8 km/h (3 Bft) 93,62 %
18.02.2018 14:44 7,3 C 10,6 C 5,6 C 72 % 0 lf 1024,4 hPa 0,0 l/m 2 min 0 min 295 W/m 20,3 km/h (4 Bft) 91,30 %
18.02.2018 14:46 7,3 C 10,0 C 5,6 C 72 % 0 lf 1024,3 hPa 0,0 l/m 2 min 0 min 252 W/m 20,3 km/h (4 Bft) 93,62 %
18.02.2018 14:48 7,3 C 10,0 C 5,6 C 72 % 0 lf 1024,3 hPa 0,0 l/m 2 min 0 min 208 W/m 20,3 km/h (4 Bft) 93,62 %
18.02.2018 14:50 7,3 C 10,0 C 5,6 C 72 % 0 lf 1024,4 hPa 0,0 l/m 2 min 0 min 222 W/m 13,5 km/h (3 Bft) 93,22 %
18.02.2018 14:52 7,3 C 10,0 C 5,6 C 72 % 0 lf 1024,4 hPa 0,0 l/m 2 min 0 min 225 W/m 15,8 km/h (3 Bft) 94,29 %
18.02.2018 14:54 7,3 C 10,0 C 5,6 C 72 % 0 lf 1024,4 hPa 0,0 l/m 2 min 0 min 222 W/m 20,3 km/h (4 Bft) 95,74 %
18.02.2018 14:56 7,3 C 9,4 C 5,6 C 72 % 0 lf 1024,4 hPa 0,0 l/m 2 min 0 min 230 W/m 18,0 km/h (3 Bft) 97,83 %
18.02.2018 14:58 7,2 C 9,4 C 6,1 C 72 % 0 lf 1024,4 hPa 0,0 l/m 2 min 0 min 233 W/m 11,3 km/h (2 Bft) 93,62 %
18.02.2018 15:00 7,2 C 9,4 C 6,1 C 72 % 0 lf 1024,3 hPa 0,0 l/m 2 min 0 min 238 W/m 18,0 km/h (3 Bft) 95,74 %
18.02.2018 15:02 7,2 C 9,4 C 6,1 C 72 % 0 lf 1024,3 hPa 0,0 l/m 2 min 0 min 219 W/m 15,8 km/h (3 Bft) 96,08 %
18.02.2018 15:04 7,2 C 9,4 C 6,1 C 72 % 0 lf 1024,4 hPa 0,0 l/m 2 min 0 min 210 W/m 15,8 km/h (3 Bft) 97,83 %
18.02.2018 15:06 7,2 C 8,9 C 6,1 C 72 % 0 lf 1024,3 hPa 0,0 l/m 2 min 0 min 213 W/m 18,0 km/h (3 Bft) 97,83 %
18.02.2018 15:08 7,2 C 8,9 C 6,1 C 72 % 0 lf 1024,3 hPa 0,0 l/m 2 min 0 min 219 W/m 15,8 km/h (3 Bft) 93,62 %
18.02.2018 15:10 7,1 C 9,4 C 6,1 C 72 % 0 lf 1024,3 hPa 0,0 l/m 2 min 0 min 252 W/m 24,8 km/h (4 Bft) 100,00 %
18.02.2018 15:12 7,1 C 9,4 C 6,1 C 72 % 0 lf 1024,3 hPa 0,0 l/m 2 min 0 min 252 W/m 20,3 km/h (4 Bft) 97,87 %
18.02.2018 15:14 7,1 C 9,4 C 6,1 C 72 % 0 lf 1024,3 hPa 0,0 l/m 2 min 0 min 248 W/m 15,8 km/h (3 Bft) 100,00 %
18.02.2018 15:16 7,1 C 9,4 C 6,1 C 72 % 0 lf 1024,3 hPa 0,0 l/m 2 min 0 min 239 W/m 13,5 km/h (3 Bft) 97,87 %
18.02.2018 15:18 7,1 C 9,4 C 6,1 C 72 % 0 lf 1024,2 hPa 0,0 l/m 2 min 0 min 239 W/m 13,5 km/h (3 Bft) 97,83 %
18.02.2018 15:20 7,1 C 9,4 C 6,1 C 72 % 0 lf 1024,1 hPa 0,0 l/m 2 min 0 min 237 W/m 18,0 km/h (3 Bft) 98,31 %
18.02.2018 15:22 7,1 C 9,4 C 6,7 C 72 % 0 lf 1024,1 hPa 0,0 l/m 2 min 0 min 249 W/m 15,8 km/h (3 Bft) 100,00 %
18.02.2018 15:24 7,1 C 10,0 C 6,7 C 72 % 0 lf 1024,1 hPa 0,0 l/m 2 min 0 min 276 W/m 13,5 km/h (3 Bft) 100,00 %
18.02.2018 15:26 7,2 C 9,4 C 6,7 C 72 % 0 lf 1024,1 hPa 0,0 l/m 2 min 0 min 262 W/m 11,3 km/h (2 Bft) 97,87 %
18.02.2018 15:28 7,2 C 9,4 C 6,7 C 72 % 0 lf 1024,1 hPa 0,0 l/m 2 min 0 min 249 W/m 20,3 km/h (4 Bft) 95,74 %
18.02.2018 15:30 7,2 C 8,9 C 6,7 C 72 % 0 lf 1024,0 hPa 0,0 l/m 2 min 0 min 220 W/m 20,3 km/h (4 Bft) 97,83 %
18.02.2018 15:32 7,2 C 8,9 C 6,7 C 72 % 0 lf 1024,0 hPa 0,0 l/m 2 min 0 min 224 W/m 20,3 km/h (4 Bft) 97,87 %
18.02.2018 15:34 7,2 C 8,9 C 6,7 C 72 % 0 lf 1024,0 hPa 0,0 l/m 2 min 0 min 199 W/m 18,0 km/h (3 Bft) 97,87 %
18.02.2018 15:36 7,2 C 8,3 C 6,1 C 72 % 0 lf 1024,0 hPa 0,0 l/m 2 min 0 min 187 W/m 18,0 km/h (3 Bft) 95,74 %
18.02.2018 15:38 7,2 C 8,3 C 6,1 C 72 % 0 lf 1024,0 hPa 0,0 l/m 2 min 0 min 183 W/m 22,5 km/h (4 Bft) 95,74 %
18.02.2018 15:40 7,1 C 8,3 C 6,1 C 71 % 0 lf 1024,0 hPa 0,0 l/m 2 min 0 min 205 W/m 22,5 km/h (4 Bft) 97,87 %
18.02.2018 15:42 7,1 C 8,3 C 6,1 C 71 % 0 lf 1024,0 hPa 0,0 l/m 2 min 0 min 198 W/m 18,0 km/h (3 Bft) 100,00 %
18.02.2018 15:44 7,1 C 8,3 C 6,1 C 72 % 0 lf 1024,0 hPa 0,0 l/m 2 min 0 min 191 W/m 18,0 km/h (3 Bft) 97,87 %
18.02.2018 15:46 7,1 C 8,3 C 6,1 C 72 % 0 lf 1024,0 hPa 0,0 l/m 2 min 0 min 171 W/m 13,5 km/h (3 Bft) 95,74 %
18.02.2018 15:48 7,1 C 7,8 C 6,1 C 72 % 0 lf 1024,0 hPa 0,0 l/m 2 min 0 min 157 W/m 18,0 km/h (3 Bft) 95,74 %
18.02.2018 15:50 7,0 C 7,8 C 5,6 C 71 % 0 lf 1024,0 hPa 0,0 l/m 2 min 0 min 145 W/m 18,0 km/h (3 Bft) 94,83 %
18.02.2018 15:52 7,0 C 7,2 C 5,6 C 71 % 0 lf 1024,0 hPa 0,0 l/m 2 min 0 min 140 W/m 18,0 km/h (3 Bft) 91,67 %
18.02.2018 15:54 6,9 C 7,2 C 5,6 C 71 % 0 lf 1024,1 hPa 0,0 l/m 2 min 0 min 134 W/m 18,0 km/h (3 Bft) 97,83 %
18.02.2018 15:56 6,9 C 7,2 C 5,6 C 71 % 0 lf 1024,0 hPa 0,0 l/m 2 min 0 min 136 W/m 15,8 km/h (3 Bft) 97,87 %
18.02.2018 15:58 6,9 C 7,8 C 5,6 C 71 % 0 lf 1024,0 hPa 0,0 l/m 2 min 0 min 141 W/m 18,0 km/h (3 Bft) 97,87 %
18.02.2018 16:00 6,9 C 7,8 C 5,6 C 71 % 0 lf 1024,0 hPa 0,0 l/m 2 min 0 min 155 W/m 13,5 km/h (3 Bft) 95,74 %
18.02.2018 16:02 6,8 C 7,8 C 5,6 C 72 % 0 lf 1024,0 hPa 0,0 l/m 2 min 0 min 143 W/m 15,8 km/h (3 Bft) 97,87 %
18.02.2018 16:04 6,8 C 7,8 C 5,6 C 72 % 0 lf 1024,0 hPa 0,0 l/m 2 min 0 min 126 W/m 18,0 km/h (3 Bft) 97,87 %
18.02.2018 16:06 6,8 C 7,8 C 5,0 C 72 % 0 lf 1024,0 hPa 0,0 l/m 0 min 0 min 117 W/m 18,0 km/h (3 Bft) 97,83 %
18.02.2018 16:08 6,8 C 7,2 C 5,0 C 72 % 0 lf 1024,0 hPa 0,0 l/m 2 min 0 min 126 W/m 15,8 km/h (3 Bft) 97,87 %
18.02.2018 16:10 6,8 C 7,8 C 5,0 C 71 % 0 lf 1024,1 hPa 0,0 l/m 2 min 0 min 136 W/m 15,8 km/h (3 Bft) 97,87 %
18.02.2018 16:12 6,7 C 7,2 C 5,0 C 71 % 0 lf 1024,1 hPa 0,0 l/m 0 min 0 min 114 W/m 15,8 km/h (3 Bft) 97,87 %
18.02.2018 16:14 6,7 C 7,2 C 5,0 C 71 % 0 lf 1024,1 hPa 0,0 l/m 0 min 0 min 104 W/m 11,3 km/h (2 Bft) 97,87 %
18.02.2018 16:16 6,7 C 7,2 C 5,0 C 72 % 0 lf 1024,0 hPa 0,0 l/m 0 min 0 min 99 W/m 13,5 km/h (3 Bft) 100,00 %
18.02.2018 16:18 6,7 C 6,7 C 5,0 C 71 % 0 lf 1024,0 hPa 0,0 l/m 0 min 0 min 97 W/m 15,8 km/h (3 Bft) 97,83 %
18.02.2018 16:20 6,6 C 6,7 C 5,0 C 71 % 0 lf 1024,0 hPa 0,0 l/m 0 min 0 min 93 W/m 15,8 km/h (3 Bft) 100,00 %
18.02.2018 16:22 6,6 C 6,7 C 5,0 C 71 % 0 lf 1023,9 hPa 0,0 l/m 0 min 0 min 91 W/m 9,0 km/h (2 Bft) 100,00 %
18.02.2018 16:24 6,6 C 6,7 C 5,0 C 71 % 0 lf 1023,9 hPa 0,0 l/m 0 min 0 min 91 W/m 11,3 km/h (2 Bft) 100,00 %
18.02.2018 16:26 6,6 C 6,7 C 5,0 C 71 % 0 lf 1024,0 hPa 0,0 l/m 0 min 0 min 89 W/m 18,0 km/h (3 Bft) 95,74 %
18.02.2018 16:28 6,5 C 6,7 C 5,0 C 71 % 0 lf 1024,0 hPa 0,0 l/m 0 min 0 min 87 W/m 11,3 km/h (2 Bft) 100,00 %
18.02.2018 16:30 6,5 C 6,7 C 5,0 C 72 % 0 lf 1023,9 hPa 0,0 l/m 0 min 0 min 86 W/m 11,3 km/h (2 Bft) 97,87 %
18.02.2018 16:32 6,4 C 6,7 C 5,0 C 72 % 0 lf 1024,0 hPa 0,0 l/m 0 min 0 min 84 W/m 9,0 km/h (2 Bft) 100,00 %
18.02.2018 16:34 6,4 C 6,7 C 4,4 C 72 % 0 lf 1023,9 hPa 0,0 l/m 0 min 0 min 83 W/m 6,8 km/h (2 Bft) 100,00 %
18.02.2018 16:36 6,4 C 6,7 C 4,4 C 71 % 0 lf 1023,9 hPa 0,0 l/m 0 min 0 min 81 W/m 11,3 km/h (2 Bft) 97,87 %
18.02.2018 16:38 6,4 C 6,7 C 4,4 C 71 % 0 lf 1023,9 hPa 0,0 l/m 0 min 0 min 79 W/m 9,0 km/h (2 Bft) 95,74 %
18.02.2018 16:40 6,4 C 6,7 C 4,4 C 71 % 0 lf 1023,9 hPa 0,0 l/m 0 min 0 min 75 W/m 6,8 km/h (2 Bft) 100,00 %
18.02.2018 16:42 6,4 C 6,7 C 4,4 C 72 % 0 lf 1023,9 hPa 0,0 l/m 0 min 0 min 73 W/m 6,8 km/h (2 Bft) 100,00 %
18.02.2018 16:44 6,4 C 6,1 C 4,4 C 72 % 0 lf 1023,9 hPa 0,0 l/m 0 min 0 min 74 W/m 13,5 km/h (3 Bft) 100,00 %
18.02.2018 16:46 6,4 C 6,1 C 4,4 C 71 % 0 lf 1023,9 hPa 0,0 l/m 0 min 0 min 78 W/m 9,0 km/h (2 Bft) 97,87 %
18.02.2018 16:48 6,3 C 6,1 C 4,4 C 71 % 0 lf 1023,9 hPa 0,0 l/m 2 min 0 min 78 W/m 6,8 km/h (2 Bft) 95,74 %
18.02.2018 16:50 6,3 C 6,1 C 3,9 C 71 % 0 lf 1023,9 hPa 0,0 l/m 2 min 0 min 83 W/m 6,8 km/h (2 Bft) 96,55 %
18.02.2018 16:52 6,3 C 6,1 C 3,9 C 71 % 0 lf 1023,9 hPa 0,0 l/m 2 min 0 min 84 W/m 9,0 km/h (2 Bft) 97,14 %
18.02.2018 16:54 6,3 C 6,1 C 3,9 C 71 % 0 lf 1023,8 hPa 0,0 l/m 2 min 0 min 81 W/m 9,0 km/h (2 Bft) 93,62 %
18.02.2018 16:56 6,2 C 6,1 C 3,3 C 71 % 0 lf 1023,8 hPa 0,0 l/m 2 min 0 min 76 W/m 6,8 km/h (2 Bft) 97,87 %
18.02.2018 16:58 6,2 C 6,1 C 3,3 C 71 % 0 lf 1023,8 hPa 0,0 l/m 2 min 0 min 69 W/m 9,0 km/h (2 Bft) 93,62 %
18.02.2018 17:00 6,2 C 6,1 C 3,3 C 71 % 0 lf 1023,9 hPa 0,0 l/m 2 min 0 min 64 W/m 9,0 km/h (2 Bft) 95,74 %
18.02.2018 17:02 6,2 C 6,1 C 3,3 C 71 % 0 lf 1023,8 hPa 0,0 l/m 2 min 0 min 62 W/m 11,3 km/h (2 Bft) 95,74 %
18.02.2018 17:04 6,1 C 6,1 C 3,3 C 70 % 0 lf 1023,8 hPa 0,0 l/m 2 min 0 min 57 W/m 11,3 km/h (2 Bft) 95,65 %
18.02.2018 17:06 6,1 C 6,1 C 3,3 C 70 % 0 lf 1023,8 hPa 0,0 l/m 0 min 0 min 52 W/m 9,0 km/h (2 Bft) 93,62 %
18.02.2018 17:08 6,1 C 6,1 C 2,8 C 70 % 0 lf 1023,8 hPa 0,0 l/m 0 min 0 min 47 W/m 9,0 km/h (2 Bft) 95,74 %
18.02.2018 17:10 6,1 C 6,1 C 2,8 C 70 % 0 lf 1023,8 hPa 0,0 l/m 0 min 0 min 44 W/m 11,3 km/h (2 Bft) 91,49 %
18.02.2018 17:12 6,1 C 5,6 C 2,8 C 70 % 0 lf 1023,8 hPa 0,0 l/m 0 min 0 min 40 W/m 11,3 km/h (2 Bft) 93,62 %
18.02.2018 17:14 6,0 C 5,6 C 2,8 C 70 % 0 lf 1023,7 hPa 0,0 l/m 0 min 0 min 39 W/m 6,8 km/h (2 Bft) 93,62 %
18.02.2018 17:16 6,0 C 5,6 C 2,8 C 70 % 0 lf 1023,8 hPa 0,0 l/m 0 min 0 min 35 W/m 9,0 km/h (2 Bft) 93,48 %
18.02.2018 17:18 5,9 C 5,6 C 2,8 C 70 % 0 lf 1023,8 hPa 0,0 l/m 0 min 0 min 34 W/m 6,8 km/h (2 Bft) 95,74 %
18.02.2018 17:20 5,9 C 5,6 C 2,8 C 70 % 0 lf 1023,8 hPa 0,0 l/m 0 min 0 min 32 W/m 6,8 km/h (2 Bft) 95,74 %
18.02.2018 17:22 5,9 C 5,6 C 2,2 C 70 % 0 lf 1023,7 hPa 0,0 l/m 0 min 0 min 30 W/m 6,8 km/h (2 Bft) 93,62 %
18.02.2018 17:24 5,9 C 5,0 C 2,2 C 70 % 0 lf 1023,6 hPa 0,0 l/m 0 min 0 min 28 W/m 9,0 km/h (2 Bft) 95,74 %
18.02.2018 17:26 5,8 C 5,0 C 2,2 C 70 % 0 lf 1023,7 hPa 0,0 l/m 0 min 0 min 26 W/m 9,0 km/h (2 Bft) 95,74 %
18.02.2018 17:28 5,8 C 5,0 C 2,2 C 70 % 0 lf 1023,7 hPa 0,0 l/m 0 min 0 min 25 W/m 9,0 km/h (2 Bft) 93,48 %
18.02.2018 17:30 5,7 C 5,0 C 2,2 C 70 % 0 lf 1023,7 hPa 0,0 l/m 0 min 0 min 23 W/m 6,8 km/h (2 Bft) 91,49 %
18.02.2018 17:32 5,7 C 5,0 C 1,7 C 70 % 0 lf 1023,6 hPa 0,0 l/m 0 min 0 min 21 W/m 6,8 km/h (2 Bft) 93,62 %
18.02.2018 17:34 5,7 C 5,0 C 1,7 C 70 % 0 lf 1023,5 hPa 0,0 l/m 2 min 0 min 20 W/m 6,8 km/h (2 Bft) 95,74 %
18.02.2018 17:36 5,6 C 5,0 C 1,1 C 70 % 0 lf 1023,5 hPa 0,0 l/m 0 min 0 min 19 W/m 4,5 km/h (1 Bft) 97,87 %
18.02.2018 17:38 5,6 C 5,0 C 1,1 C 70 % 0 lf 1023,6 hPa 0,0 l/m 0 min 0 min 17 W/m 6,8 km/h (2 Bft) 95,65 %
18.02.2018 17:40 5,6 C 4,4 C 0,6 C 70 % 0 lf 1023,5 hPa 0,0 l/m 0 min 0 min 16 W/m 6,8 km/h (2 Bft) 95,74 %
18.02.2018 17:42 5,5 C 4,4 C 0,6 C 70 % 0 lf 1023,5 hPa 0,0 l/m 0 min 0 min 14 W/m 6,8 km/h (2 Bft) 97,87 %
18.02.2018 17:44 5,4 C 4,4 C 0,6 C 70 % 0 lf 1023,6 hPa 0,0 l/m 0 min 0 min 12 W/m 9,0 km/h (2 Bft) 97,87 %
18.02.2018 17:46 5,4 C 4,4 C 0,6 C 70 % 0 lf 1023,5 hPa 0,0 l/m 0 min 0 min 12 W/m 9,0 km/h (2 Bft) 97,87 %
18.02.2018 17:48 5,3 C 4,4 C 0,6 C 70 % 0 lf 1023,5 hPa 0,0 l/m 0 min 0 min 11 W/m 9,0 km/h (2 Bft) 97,87 %
18.02.2018 17:50 5,3 C 4,4 C 0,6 C 71 % 0 lf 1023,4 hPa 0,0 l/m 0 min 0 min 10 W/m 9,0 km/h (2 Bft) 93,10 %
18.02.2018 17:52 5,2 C 3,9 C 0,6 C 70 % 0 lf 1023,4 hPa 0,0 l/m 0 min 0 min 8 W/m 9,0 km/h (2 Bft) 97,14 %
18.02.2018 17:54 5,2 C 3,9 C 0,6 C 71 % 0 lf 1023,4 hPa 0,0 l/m 0 min 0 min 7 W/m 9,0 km/h (2 Bft) 95,74 %
18.02.2018 17:56 5,1 C 3,9 C 0,6 C 71 % 0 lf 1023,4 hPa 0,0 l/m 0 min 0 min 7 W/m 9,0 km/h (2 Bft) 95,74 %
18.02.2018 17:58 5,1 C 3,9 C 0,0 C 71 % 0 lf 1023,4 hPa 0,0 l/m 0 min 0 min 5 W/m 9,0 km/h (2 Bft) 97,87 %
18.02.2018 18:00 5,1 C 3,9 C -0,6 C 71 % 0 lf 1023,5 hPa 0,0 l/m 0 min 0 min 5 W/m 9,0 km/h (2 Bft) 97,87 %
18.02.2018 18:02 5,0 C 3,9 C -0,6 C 71 % 0 lf 1023,4 hPa 0,0 l/m 0 min 0 min 0 W/m 9,0 km/h (2 Bft) 97,83 %
18.02.2018 18:04 5,0 C 3,3 C -0,6 C 71 % 0 lf 1023,5 hPa 0,0 l/m 0 min 0 min 0 W/m 6,8 km/h (2 Bft) 95,74 %
18.02.2018 18:06 4,9 C 3,3 C -1,1 C 71 % 0 lf 1023,4 hPa 0,0 l/m 0 min 0 min 0 W/m 9,0 km/h (2 Bft) 95,74 %
18.02.2018 18:08 4,9 C 3,3 C -1,1 C 71 % 0 lf 1023,5 hPa 0,0 l/m 0 min 0 min 0 W/m 6,8 km/h (2 Bft) 93,62 %
18.02.2018 18:10 4,8 C 3,3 C -1,1 C 71 % 0 lf 1023,5 hPa 0,0 l/m 0 min 0 min 0 W/m 6,8 km/h (2 Bft) 97,87 %
18.02.2018 18:12 4,8 C 3,3 C -1,1 C 71 % 0 lf 1023,5 hPa 0,0 l/m 0 min 0 min 0 W/m 9,0 km/h (2 Bft) 97,87 %
18.02.2018 18:14 4,7 C 3,3 C -1,7 C 71 % 0 lf 1023,5 hPa 0,0 l/m 0 min 0 min 0 W/m 6,8 km/h (2 Bft) 100,00 %
18.02.2018 18:16 4,7 C 3,3 C -1,7 C 72 % 0 lf 1023,5 hPa 0,0 l/m 0 min 0 min 0 W/m 6,8 km/h (2 Bft) 97,87 %
18.02.2018 18:18 4,6 C 3,3 C -1,7 C 72 % 0 lf 1023,6 hPa 0,0 l/m 0 min 0 min 0 W/m 6,8 km/h (2 Bft) 100,00 %
18.02.2018 18:20 4,6 C 3,3 C -1,7 C 72 % 0 lf 1023,6 hPa 0,0 l/m 0 min 0 min 0 W/m 6,8 km/h (2 Bft) 97,87 %
18.02.2018 18:22 4,5 C 2,8 C -1,7 C 72 % 0 lf 1023,6 hPa 0,0 l/m 0 min 0 min 0 W/m 6,8 km/h (2 Bft) 100,00 %
18.02.2018 18:24 4,4 C 2,8 C -1,7 C 72 % 0 lf 1023,6 hPa 0,0 l/m 0 min 0 min 0 W/m 6,8 km/h (2 Bft) 100,00 %
18.02.2018 18:26 4,4 C 2,8 C -1,7 C 72 % 0 lf 1023,5 hPa 0,0 l/m 0 min 0 min 0 W/m 6,8 km/h (2 Bft) 95,65 %
18.02.2018 18:28 4,3 C 2,8 C -1,7 C 72 % 0 lf 1023,5 hPa 0,0 l/m 0 min 0 min 0 W/m 9,0 km/h (2 Bft) 97,87 %
18.02.2018 18:30 4,3 C 2,8 C -2,2 C 72 % 0 lf 1023,5 hPa 0,0 l/m 0 min 0 min 0 W/m 6,8 km/h (2 Bft) 100,00 %
18.02.2018 18:32 4,2 C 2,8 C -2,2 C 72 % 0 lf 1023,4 hPa 0,0 l/m 0 min 0 min 0 W/m 4,5 km/h (1 Bft) 95,74 %
18.02.2018 18:34 4,2 C 2,8 C -2,2 C 72 % 0 lf 1023,5 hPa 0,0 l/m 0 min 0 min 0 W/m 6,8 km/h (2 Bft) 97,87 %
18.02.2018 18:36 4,1 C 2,2 C -2,2 C 72 % 0 lf 1023,5 hPa 0,0 l/m 0 min 0 min 0 W/m 4,5 km/h (1 Bft) 97,87 %
18.02.2018 18:38 4,1 C 2,2 C -2,2 C 72 % 0 lf 1023,5 hPa 0,0 l/m 0 min 0 min 0 W/m 4,5 km/h (1 Bft) 97,83 %
18.02.2018 18:40 4,0 C 2,2 C -2,2 C 72 % 0 lf 1023,6 hPa 0,0 l/m 0 min 0 min 0 W/m 4,5 km/h (1 Bft) 100,00 %
18.02.2018 18:42 3,9 C 1,7 C -2,2 C 72 % 0 lf 1023,5 hPa 0,0 l/m 0 min 0 min 0 W/m 4,5 km/h (1 Bft) 97,87 %
18.02.2018 18:44 3,8 C 1,7 C -2,2 C 72 % 0 lf 1023,4 hPa 0,0 l/m 0 min 0 min 0 W/m 6,8 km/h (2 Bft) 100,00 %
18.02.2018 18:46 3,8 C 1,7 C -2,2 C 72 % 0 lf 1023,5 hPa 0,0 l/m 0 min 0 min 0 W/m 11,3 km/h (2 Bft) 95,74 %
18.02.2018 18:48 3,7 C 1,7 C -2,2 C 72 % 0 lf 1023,6 hPa 0,0 l/m 0 min 0 min 0 W/m 11,3 km/h (2 Bft) 97,83 %
18.02.2018 18:50 3,7 C 2,2 C -2,2 C 73 % 0 lf 1023,6 hPa 0,0 l/m 0 min 0 min 0 W/m 6,8 km/h (2 Bft) 95,74 %
18.02.2018 18:52 3,6 C 2,2 C -2,2 C 73 % 0 lf 1023,6 hPa 0,0 l/m 0 min 0 min 0 W/m 9,0 km/h (2 Bft) 95,74 %
18.02.2018 18:54 3,5 C 2,2 C -2,2 C 73 % 0 lf 1023,6 hPa 0,0 l/m 0 min 0 min 0 W/m 6,8 km/h (2 Bft) 95,74 %
18.02.2018 18:56 3,5 C 2,2 C -2,2 C 74 % 0 lf 1023,6 hPa 0,0 l/m 0 min 0 min 0 W/m 9,0 km/h (2 Bft) 95,74 %
18.02.2018 18:58 3,4 C 2,2 C -2,2 C 74 % 0 lf 1023,6 hPa 0,0 l/m 0 min 0 min 0 W/m 6,8 km/h (2 Bft) 93,62 %
18.02.2018 19:00 3,4 C 2,2 C -2,2 C 74 % 0 lf 1023,6 hPa 0,0 l/m 0 min 0 min 0 W/m 9,0 km/h (2 Bft) 93,48 %
18.02.2018 19:02 3,3 C 2,2 C -2,2 C 74 % 0 lf 1023,6 hPa 0,0 l/m 0 min 0 min 0 W/m 9,0 km/h (2 Bft) 95,74 %
18.02.2018 19:04 3,2 C 2,2 C -2,2 C 74 % 0 lf 1023,7 hPa 0,0 l/m 0 min 0 min 0 W/m 9,0 km/h (2 Bft) 93,62 %
18.02.2018 19:06 3,2 C 2,2 C -2,2 C 75 % 0 lf 1023,7 hPa 0,0 l/m 0 min 0 min 0 W/m 9,0 km/h (2 Bft) 93,62 %
18.02.2018 19:08 3,2 C 2,2 C -2,2 C 75 % 0 lf 1023,6 hPa 0,0 l/m 0 min 0 min 0 W/m 9,0 km/h (2 Bft) 95,74 %
18.02.2018 19:10 3,1 C 2,8 C -1,7 C 75 % 0 lf 1023,7 hPa 0,0 l/m 0 min 0 min 0 W/m 6,8 km/h (2 Bft) 95,74 %
18.02.2018 19:12 3,1 C 2,8 C -1,7 C 75 % 0 lf 1023,6 hPa 0,0 l/m 0 min 0 min 0 W/m 9,0 km/h (2 Bft) 95,65 %
18.02.2018 19:14 3,0 C 2,8 C -1,7 C 75 % 0 lf 1023,6 hPa 0,0 l/m 0 min 0 min 0 W/m 6,8 km/h (2 Bft) 93,62 %
18.02.2018 19:16 3,0 C 2,2 C -2,2 C 75 % 0 lf 1023,5 hPa 0,0 l/m 0 min 0 min 0 W/m 6,8 km/h (2 Bft) 95,74 %
18.02.2018 19:18 2,9 C 2,2 C -2,2 C 76 % 0 lf 1023,5 hPa 0,0 l/m 0 min 0 min 0 W/m 6,8 km/h (2 Bft) 93,62 %
18.02.2018 19:20 2,9 C 2,2 C -2,2 C 76 % 0 lf 1023,4 hPa 0,0 l/m 0 min 0 min 0 W/m 9,0 km/h (2 Bft) 95,74 %
18.02.2018 19:22 2,9 C 2,2 C -2,2 C 76 % 0 lf 1023,5 hPa 0,0 l/m 0 min 0 min 0 W/m 9,0 km/h (2 Bft) 95,74 %
18.02.2018 19:24 2,8 C 1,7 C -2,2 C 76 % 0 lf 1023,4 hPa 0,0 l/m 0 min 0 min 0 W/m 6,8 km/h (2 Bft) 97,83 %
18.02.2018 19:26 2,8 C 1,7 C -2,2 C 76 % 0 lf 1023,4 hPa 0,0 l/m 0 min 0 min 0 W/m 9,0 km/h (2 Bft) 97,87 %
18.02.2018 19:28 2,8 C 1,7 C -2,2 C 76 % 0 lf 1023,4 hPa 0,0 l/m 0 min 0 min 0 W/m 9,0 km/h (2 Bft) 95,74 %
18.02.2018 19:30 2,8 C 1,7 C -2,2 C 76 % 0 lf 1023,4 hPa 0,0 l/m 0 min 0 min 0 W/m 9,0 km/h (2 Bft) 93,62 %
18.02.2018 19:32 2,7 C 1,1 C -2,2 C 76 % 0 lf 1023,4 hPa 0,0 l/m 0 min 0 min 0 W/m 9,0 km/h (2 Bft) 97,87 %
18.02.2018 19:34 2,7 C 1,1 C -2,8 C 76 % 0 lf 1023,4 hPa 0,0 l/m 0 min 0 min 0 W/m 9,0 km/h (2 Bft) 97,96 %
18.02.2018 19:36 2,6 C 1,1 C -2,8 C 76 % 0 lf 1023,5 hPa 0,0 l/m 0 min 0 min 0 W/m 6,8 km/h (2 Bft) 97,87 %
18.02.2018 19:38 2,6 C 1,1 C -2,8 C 76 % 0 lf 1023,4 hPa 0,0 l/m 0 min 0 min 0 W/m 9,0 km/h (2 Bft) 97,87 %
18.02.2018 19:40 2,6 C 1,7 C -2,8 C 76 % 0 lf 1023,3 hPa 0,0 l/m 0 min 0 min 0 W/m 6,8 km/h (2 Bft) 97,87 %
18.02.2018 19:42 2,6 C 1,1 C -2,8 C 76 % 0 lf 1023,3 hPa 0,0 l/m 0 min 0 min 0 W/m 9,0 km/h (2 Bft) 97,87 %
18.02.2018 19:44 2,5 C 1,1 C -2,2 C 76 % 0 lf 1023,3 hPa 0,0 l/m 0 min 0 min 0 W/m 9,0 km/h (2 Bft) 97,87 %
18.02.2018 19:46 2,4 C 1,7 C -2,2 C 76 % 0 lf 1023,3 hPa 0,0 l/m 0 min 0 min 0 W/m 9,0 km/h (2 Bft) 95,65 %
18.02.2018 19:48 2,4 C 1,7 C -2,2 C 76 % 0 lf 1023,2 hPa 0,0 l/m 0 min 0 min 0 W/m 9,0 km/h (2 Bft) 95,74 %
18.02.2018 19:50 2,4 C 1,7 C -2,2 C 77 % 0 lf 1023,2 hPa 0,0 l/m 0 min 0 min 0 W/m 9,0 km/h (2 Bft) 89,36 %
18.02.2018 19:52 2,3 C 1,7 C -2,2 C 77 % 0 lf 1023,2 hPa 0,0 l/m 0 min 0 min 0 W/m 11,3 km/h (2 Bft) 93,62 %
18.02.2018 19:54 2,3 C 2,2 C -2,2 C 77 % 0 lf 1023,2 hPa 0,0 l/m 0 min 0 min 0 W/m 9,0 km/h (2 Bft) 91,49 %
18.02.2018 19:56 2,3 C 2,2 C -1,7 C 77 % 0 lf 1023,2 hPa 0,0 l/m 0 min 0 min 0 W/m 9,0 km/h (2 Bft) 93,48 %
18.02.2018 19:58 2,2 C 1,7 C -1,7 C 77 % 0 lf 1023,2 hPa 0,0 l/m 0 min 0 min 0 W/m 9,0 km/h (2 Bft) 97,87 %
18.02.2018 20:00 2,2 C 1,7 C -1,7 C 78 % 0 lf 1023,2 hPa 0,0 l/m 0 min 0 min 0 W/m 9,0 km/h (2 Bft) 93,62 %
18.02.2018 20:02 2,2 C 1,7 C -1,7 C 78 % 0 lf 1023,2 hPa 0,0 l/m 0 min 0 min 0 W/m 6,8 km/h (2 Bft) 95,74 %
18.02.2018 20:04 2,2 C 1,7 C -1,7 C 78 % 0 lf 1023,3 hPa 0,0 l/m 0 min 0 min 0 W/m 9,0 km/h (2 Bft) 93,62 %
18.02.2018 20:06 2,2 C 1,7 C -1,7 C 78 % 0 lf 1023,2 hPa 0,0 l/m 0 min 0 min 0 W/m 9,0 km/h (2 Bft) 93,62 %
18.02.2018 20:08 2,2 C 1,7 C -1,1 C 78 % 0 lf 1023,2 hPa 0,0 l/m 0 min 0 min 0 W/m 11,3 km/h (2 Bft) 95,65 %
18.02.2018 20:10 2,2 C 1,7 C -1,7 C 79 % 0 lf 1023,2 hPa 0,0 l/m 0 min 0 min 0 W/m 11,3 km/h (2 Bft) 95,74 %
18.02.2018 20:12 2,1 C 1,7 C -1,7 C 79 % 0 lf 1023,2 hPa 0,0 l/m 0 min 0 min 0 W/m 9,0 km/h (2 Bft) 95,74 %
18.02.2018 20:14 2,1 C 1,7 C -1,7 C 79 % 0 lf 1023,3 hPa 0,0 l/m 0 min 0 min 0 W/m 9,0 km/h (2 Bft) 95,74 %
18.02.2018 20:16 2,1 C 1,7 C -1,7 C 79 % 0 lf 1023,3 hPa 0,0 l/m 0 min 0 min 0 W/m 13,5 km/h (3 Bft) 93,62 %
18.02.2018 20:18 2,1 C 1,7 C -1,7 C 79 % 0 lf 1023,3 hPa 0,0 l/m 0 min 0 min 0 W/m 11,3 km/h (2 Bft) 95,74 %
18.02.2018 20:20 2,1 C 1,7 C -1,1 C 79 % 0 lf 1023,2 hPa 0,0 l/m 0 min 0 min 0 W/m 13,5 km/h (3 Bft) 95,65 %
18.02.2018 20:22 2,1 C 1,7 C -1,1 C 79 % 0 lf 1023,2 hPa 0,0 l/m 0 min 0 min 0 W/m 11,3 km/h (2 Bft) 91,49 %
18.02.2018 20:24 2,1 C 1,7 C -1,1 C 79 % 0 lf 1023,2 hPa 0,0 l/m 0 min 0 min 0 W/m 11,3 km/h (2 Bft) 93,62 %
18.02.2018 20:26 2,0 C 1,7 C -1,1 C 80 % 0 lf 1023,2 hPa 0,0 l/m 0 min 0 min 0 W/m 15,8 km/h (3 Bft) 95,74 %
18.02.2018 20:28 2,0 C 1,7 C -0,6 C 80 % 0 lf 1023,2 hPa 0,0 l/m 0 min 0 min 0 W/m 13,5 km/h (3 Bft) 93,62 %
18.02.2018 20:30 2,0 C 1,7 C -0,6 C 80 % 0 lf 1023,3 hPa 0,0 l/m 0 min 0 min 0 W/m 11,3 km/h (2 Bft) 95,74 %
18.02.2018 20:32 2,0 C 1,7 C -0,6 C 80 % 0 lf 1023,3 hPa 0,0 l/m 0 min 0 min 0 W/m 11,3 km/h (2 Bft) 95,65 %
18.02.2018 20:34 2,0 C 1,7 C -0,6 C 80 % 0 lf 1023,3 hPa 0,0 l/m 0 min 0 min 0 W/m 13,5 km/h (3 Bft) 93,62 %
18.02.2018 20:36 2,0 C 1,7 C -1,1 C 80 % 0 lf 1023,3 hPa 0,0 l/m 0 min 0 min 0 W/m 11,3 km/h (2 Bft) 95,74 %
18.02.2018 20:38 2,0 C 1,7 C -1,1 C 81 % 0 lf 1023,4 hPa 0,0 l/m 0 min 0 min 0 W/m 9,0 km/h (2 Bft) 91,49 %
18.02.2018 20:40 2,0 C 1,7 C -1,1 C 81 % 0 lf 1023,3 hPa 0,0 l/m 0 min 0 min 0 W/m 13,5 km/h (3 Bft) 95,74 %
18.02.2018 20:42 2,0 C 1,7 C -1,1 C 81 % 0 lf 1023,3 hPa 0,0 l/m 0 min 0 min 0 W/m 11,3 km/h (2 Bft) 95,74 %
18.02.2018 20:44 1,9 C 1,7 C -1,1 C 81 % 0 lf 1023,3 hPa 0,0 l/m 0 min 0 min 0 W/m 11,3 km/h (2 Bft) 97,83 %
18.02.2018 20:46 1,9 C 1,7 C -1,1 C 81 % 0 lf 1023,3 hPa 0,0 l/m 0 min 0 min 0 W/m 9,0 km/h (2 Bft) 97,87 %
18.02.2018 20:48 1,9 C 1,7 C -1,1 C 81 % 0 lf 1023,3 hPa 0,0 l/m 0 min 0 min 0 W/m 6,8 km/h (2 Bft) 100,00 %
18.02.2018 20:50 1,9 C 1,1 C -1,7 C 81 % 0 lf 1023,4 hPa 0,0 l/m 0 min 0 min 0 W/m 9,0 km/h (2 Bft) 97,87 %
18.02.2018 20:52 1,9 C 1,1 C -1,7 C 81 % 0 lf 1023,4 hPa 0,0 l/m 0 min 0 min 0 W/m 9,0 km/h (2 Bft) 97,87 %
18.02.2018 20:54 1,9 C 1,1 C -1,7 C 81 % 0 lf 1023,4 hPa 0,0 l/m 0 min 0 min 0 W/m 11,3 km/h (2 Bft) 97,87 %
18.02.2018 20:56 1,9 C 1,1 C -1,1 C 81 % 0 lf 1023,3 hPa 0,0 l/m 0 min 0 min 0 W/m 9,0 km/h (2 Bft) 97,83 %
18.02.2018 20:58 1,8 C 1,1 C -1,7 C 81 % 0 lf 1023,4 hPa 0,0 l/m 0 min 0 min 0 W/m 9,0 km/h (2 Bft) 93,62 %
18.02.2018 21:00 1,8 C 1,1 C -1,7 C 82 % 0 lf 1023,4 hPa 0,0 l/m 0 min 0 min 0 W/m 9,0 km/h (2 Bft) 95,74 %
18.02.2018 21:02 1,8 C 1,1 C -1,7 C 82 % 0 lf 1023,4 hPa 0,0 l/m 0 min 0 min 0 W/m 9,0 km/h (2 Bft) 93,62 %
18.02.2018 21:04 1,7 C 0,6 C -1,7 C 82 % 0 lf 1023,4 hPa 0,0 l/m 0 min 0 min 0 W/m 9,0 km/h (2 Bft) 97,87 %
18.02.2018 21:06 1,7 C 0,6 C -1,7 C 82 % 0 lf 1023,3 hPa 0,0 l/m 0 min 0 min 0 W/m 11,3 km/h (2 Bft) 95,74 %
18.02.2018 21:08 1,7 C 1,1 C -1,7 C 82 % 0 lf 1023,3 hPa 0,0 l/m 0 min 0 min 0 W/m 6,8 km/h (2 Bft) 97,83 %
18.02.2018 21:10 1,7 C 1,1 C -1,7 C 82 % 0 lf 1023,1 hPa 0,0 l/m 0 min 0 min 0 W/m 11,3 km/h (2 Bft) 97,87 %
18.02.2018 21:12 1,6 C 1,1 C -1,7 C 82 % 0 lf 1023,1 hPa 0,0 l/m 0 min 0 min 0 W/m 11,3 km/h (2 Bft) 95,74 %
18.02.2018 21:14 1,6 C 1,1 C -1,7 C 82 % 0 lf 1023,1 hPa 0,0 l/m 0 min 0 min 0 W/m 11,3 km/h (2 Bft) 97,87 %
18.02.2018 21:16 1,6 C 0,6 C -1,7 C 82 % 0 lf 1023,1 hPa 0,0 l/m 0 min 0 min 0 W/m 9,0 km/h (2 Bft) 97,87 %
18.02.2018 21:18 1,5 C 0,6 C -1,7 C 83 % 0 lf 1023,2 hPa 0,0 l/m 0 min 0 min 0 W/m 9,0 km/h (2 Bft) 97,83 %
18.02.2018 21:20 1,5 C 0,6 C -1,7 C 83 % 0 lf 1023,1 hPa 0,0 l/m 0 min 0 min 0 W/m 9,0 km/h (2 Bft) 95,74 %
18.02.2018 21:22 1,4 C 0,6 C -1,7 C 83 % 0 lf 1023,1 hPa 0,0 l/m 0 min 0 min 0 W/m 9,0 km/h (2 Bft) 100,00 %
18.02.2018 21:24 1,4 C 0,6 C -1,7 C 83 % 0 lf 1023,1 hPa 0,0 l/m 0 min 0 min 0 W/m 9,0 km/h (2 Bft) 100,00 %
18.02.2018 21:26 1,4 C 0,6 C -1,7 C 83 % 0 lf 1023,0 hPa 0,0 l/m 0 min 0 min 0 W/m 9,0 km/h (2 Bft) 97,87 %
18.02.2018 21:28 1,4 C 1,1 C -1,7 C 83 % 0 lf 1023,0 hPa 0,0 l/m 0 min 0 min 0 W/m 11,3 km/h (2 Bft) 100,00 %
18.02.2018 21:30 1,3 C 1,1 C -1,1 C 83 % 0 lf 1023,1 hPa 0,0 l/m 0 min 0 min 0 W/m 9,0 km/h (2 Bft) 97,83 %
18.02.2018 21:32 1,3 C 1,1 C -1,1 C 83 % 0 lf 1023,1 hPa 0,0 l/m 0 min 0 min 0 W/m 11,3 km/h (2 Bft) 100,00 %
18.02.2018 21:34 1,3 C 1,1 C -1,1 C 83 % 0 lf 1023,0 hPa 0,0 l/m 0 min 0 min 0 W/m 11,3 km/h (2 Bft) 98,00 %
18.02.2018 21:36 1,3 C 1,1 C -1,1 C 84 % 0 lf 1023,1 hPa 0,0 l/m 0 min 0 min 0 W/m 11,3 km/h (2 Bft) 97,87 %
18.02.2018 21:38 1,3 C 1,1 C -1,1 C 84 % 0 lf 1023,0 hPa 0,0 l/m 0 min 0 min 0 W/m 11,3 km/h (2 Bft) 100,00 %
18.02.2018 21:40 1,2 C 1,1 C -1,1 C 84 % 0 lf 1023,1 hPa 0,0 l/m 0 min 0 min 0 W/m 11,3 km/h (2 Bft) 95,74 %
18.02.2018 21:42 1,2 C 1,1 C -1,1 C 84 % 0 lf 1023,0 hPa 0,0 l/m 0 min 0 min 0 W/m 13,5 km/h (3 Bft) 100,00 %
18.02.2018 21:44 1,2 C 1,1 C -1,1 C 84 % 0 lf 1023,0 hPa 0,0 l/m 0 min 0 min 0 W/m 13,5 km/h (3 Bft) 97,87 %
18.02.2018 21:46 1,2 C 1,1 C -1,1 C 84 % 0 lf 1023,0 hPa 0,0 l/m 0 min 0 min 0 W/m 11,3 km/h (2 Bft) 100,00 %
18.02.2018 21:48 1,2 C 1,1 C -1,1 C 84 % 0 lf 1023,0 hPa 0,0 l/m 0 min 0 min 0 W/m 11,3 km/h (2 Bft) 95,74 %
18.02.2018 21:50 1,2 C 1,1 C -1,1 C 84 % 0 lf 1022,9 hPa 0,0 l/m 0 min 0 min 0 W/m 11,3 km/h (2 Bft) 100,00 %
18.02.2018 21:52 1,2 C 1,1 C -1,1 C 84 % 0 lf 1022,9 hPa 0,0 l/m 0 min 0 min 0 W/m 9,0 km/h (2 Bft) 97,83 %
18.02.2018 21:54 1,2 C 1,1 C -1,1 C 84 % 0 lf 1022,9 hPa 0,0 l/m 0 min 0 min 0 W/m 13,5 km/h (3 Bft) 100,00 %
18.02.2018 21:56 1,2 C 1,1 C -1,1 C 84 % 0 lf 1022,8 hPa 0,0 l/m 0 min 0 min 0 W/m 11,3 km/h (2 Bft) 97,87 %
18.02.2018 21:58 1,2 C 1,1 C -1,1 C 84 % 0 lf 1022,8 hPa 0,0 l/m 0 min 0 min 0 W/m 11,3 km/h (2 Bft) 100,00 %
18.02.2018 22:00 1,2 C 0,6 C -1,7 C 85 % 0 lf 1022,8 hPa 0,0 l/m 0 min 0 min 0 W/m 11,3 km/h (2 Bft) 100,00 %
18.02.2018 22:02 1,1 C 1,1 C -1,1 C 85 % 0 lf 1022,8 hPa 0,0 l/m 0 min 0 min 0 W/m 9,0 km/h (2 Bft) 100,00 %
18.02.2018 22:04 1,1 C 0,6 C -1,1 C 85 % 0 lf 1022,8 hPa 0,0 l/m 0 min 0 min 0 W/m 11,3 km/h (2 Bft) 100,00 %
18.02.2018 22:06 1,1 C 0,6 C -1,1 C 85 % 0 lf 1022,8 hPa 0,0 l/m 0 min 0 min 0 W/m 11,3 km/h (2 Bft) 95,74 %
18.02.2018 22:08 1,1 C 0,6 C -1,1 C 85 % 0 lf 1022,8 hPa 0,0 l/m 0 min 0 min 0 W/m 9,0 km/h (2 Bft) 97,87 %
18.02.2018 22:10 1,1 C 0,6 C -1,1 C 85 % 0 lf 1022,8 hPa 0,0 l/m 0 min 0 min 0 W/m 9,0 km/h (2 Bft) 100,00 %
18.02.2018 22:12 1,1 C 0,6 C -1,7 C 85 % 0 lf 1022,8 hPa 0,0 l/m 0 min 0 min 0 W/m 11,3 km/h (2 Bft) 100,00 %
18.02.2018 22:14 1,1 C 0,6 C -1,1 C 85 % 0 lf 1022,7 hPa 0,0 l/m 0 min 0 min 0 W/m 11,3 km/h (2 Bft) 100,00 %
18.02.2018 22:16 1,1 C 0,6 C -1,1 C 85 % 0 lf 1022,7 hPa 0,0 l/m 0 min 0 min 0 W/m 11,3 km/h (2 Bft) 100,00 %
18.02.2018 22:18 1,1 C 0,6 C -1,1 C 85 % 0 lf 1022,7 hPa 0,0 l/m 0 min 0 min 0 W/m 11,3 km/h (2 Bft) 97,87 %
18.02.2018 22:20 1,1 C 0,6 C -1,1 C 85 % 0 lf 1022,8 hPa 0,0 l/m 0 min 0 min 0 W/m 11,3 km/h (2 Bft) 97,87 %
18.02.2018 22:22 1,1 C 0,6 C -1,7 C 85 % 0 lf 1022,7 hPa 0,0 l/m 0 min 0 min 0 W/m 9,0 km/h (2 Bft) 95,74 %
18.02.2018 22:24 1,0 C 0,6 C -1,7 C 85 % 0 lf 1022,7 hPa 0,0 l/m 0 min 0 min 0 W/m 9,0 km/h (2 Bft) 97,87 %
18.02.2018 22:26 1,0 C 1,1 C -1,1 C 85 % 0 lf 1022,6 hPa 0,0 l/m 0 min 0 min 0 W/m 15,8 km/h (3 Bft) 97,87 %
18.02.2018 22:28 1,0 C 1,1 C -1,1 C 85 % 0 lf 1022,6 hPa 0,0 l/m 0 min 0 min 0 W/m 11,3 km/h (2 Bft) 95,65 %
18.02.2018 22:30 1,0 C 1,1 C -1,1 C 85 % 0 lf 1022,6 hPa 0,0 l/m 0 min 0 min 0 W/m 11,3 km/h (2 Bft) 97,87 %
18.02.2018 22:32 1,0 C 1,1 C -1,1 C 85 % 0 lf 1022,6 hPa 0,0 l/m 0 min 0 min 0 W/m 11,3 km/h (2 Bft) 97,87 %
18.02.2018 22:34 1,0 C 1,1 C -1,1 C 85 % 0 lf 1022,7 hPa 0,0 l/m 0 min 0 min 0 W/m 9,0 km/h (2 Bft) 97,87 %
18.02.2018 22:36 1,0 C 1,1 C -1,1 C 85 % 0 lf 1022,7 hPa 0,0 l/m 0 min 0 min 0 W/m 9,0 km/h (2 Bft) 97,87 %
18.02.2018 22:38 1,0 C 1,1 C -1,1 C 85 % 0 lf 1022,6 hPa 0,0 l/m 0 min 0 min 0 W/m 11,3 km/h (2 Bft) 91,49 %
18.02.2018 22:40 1,0 C 1,1 C -1,1 C 85 % 0 lf 1022,5 hPa 0,0 l/m 0 min 0 min 0 W/m 11,3 km/h (2 Bft) 95,65 %
18.02.2018 22:42 1,0 C 0,6 C -1,7 C 85 % 0 lf 1022,6 hPa 0,0 l/m 0 min 0 min 0 W/m 9,0 km/h (2 Bft) 95,74 %
18.02.2018 22:44 1,0 C 0,6 C -1,1 C 85 % 0 lf 1022,6 hPa 0,0 l/m 0 min 0 min 0 W/m 6,8 km/h (2 Bft) 95,74 %
18.02.2018 22:46 1,0 C 0,6 C -1,7 C 85 % 0 lf 1022,6 hPa 0,0 l/m 0 min 0 min 0 W/m 11,3 km/h (2 Bft) 93,62 %
18.02.2018 22:48 1,0 C 0,6 C -1,7 C 85 % 0 lf 1022,5 hPa 0,0 l/m 0 min 0 min 0 W/m 13,5 km/h (3 Bft) 95,74 %
18.02.2018 22:50 1,0 C 0,6 C -1,7 C 85 % 0 lf 1022,5 hPa 0,0 l/m 0 min 0 min 0 W/m 9,0 km/h (2 Bft) 93,62 %
18.02.2018 22:52 1,0 C 0,6 C -1,7 C 85 % 0 lf 1022,6 hPa 0,0 l/m 0 min 0 min 0 W/m 9,0 km/h (2 Bft) 95,65 %
18.02.2018 22:54 1,0 C 0,6 C -1,7 C 85 % 0 lf 1022,5 hPa 0,0 l/m 0 min 0 min 0 W/m 9,0 km/h (2 Bft) 91,49 %
18.02.2018 22:56 1,0 C 0,6 C -1,7 C 85 % 0 lf 1022,5 hPa 0,0 l/m 0 min 0 min 0 W/m 9,0 km/h (2 Bft) 89,36 %
18.02.2018 22:58 1,0 C 0,6 C -1,7 C 85 % 0 lf 1022,6 hPa 0,0 l/m 0 min 0 min 0 W/m 9,0 km/h (2 Bft) 89,36 %
18.02.2018 23:00 0,9 C 0,6 C -1,7 C 85 % 0 lf 1022,6 hPa 0,0 l/m 0 min 0 min 0 W/m 6,8 km/h (2 Bft) 93,62 %
18.02.2018 23:02 0,9 C 0,6 C -1,7 C 85 % 0 lf 1022,6 hPa 0,0 l/m 0 min 0 min 0 W/m 9,0 km/h (2 Bft) 89,13 %
18.02.2018 23:04 0,9 C 0,6 C -2,2 C 85 % 0 lf 1022,6 hPa 0,0 l/m 0 min 0 min 0 W/m 9,0 km/h (2 Bft) 91,49 %
18.02.2018 23:06 0,9 C 0,0 C -2,2 C 85 % 0 lf 1022,6 hPa 0,0 l/m 0 min 0 min 0 W/m 9,0 km/h (2 Bft) 91,49 %
18.02.2018 23:08 0,9 C 0,0 C -2,2 C 85 % 0 lf 1022,7 hPa 0,0 l/m 0 min 0 min 0 W/m 9,0 km/h (2 Bft) 93,62 %
18.02.2018 23:10 0,8 C 0,0 C -2,2 C 85 % 0 lf 1022,7 hPa 0,0 l/m 0 min 0 min 0 W/m 9,0 km/h (2 Bft) 91,49 %
18.02.2018 23:12 0,8 C 0,0 C -2,2 C 85 % 0 lf 1022,7 hPa 0,0 l/m 0 min 0 min 0 W/m 9,0 km/h (2 Bft) 93,62 %
18.02.2018 23:14 0,8 C 0,0 C -2,2 C 85 % 0 lf 1022,6 hPa 0,0 l/m 0 min 0 min 0 W/m 9,0 km/h (2 Bft) 93,48 %
18.02.2018 23:16 0,8 C 0,0 C -2,2 C 85 % 0 lf 1022,6 hPa 0,0 l/m 0 min 0 min 0 W/m 9,0 km/h (2 Bft) 91,49 %
18.02.2018 23:18 0,8 C 0,0 C -2,2 C 85 % 0 lf 1022,7 hPa 0,0 l/m 0 min 0 min 0 W/m 6,8 km/h (2 Bft) 93,62 %
18.02.2018 23:20 0,7 C 0,0 C -2,2 C 85 % 0 lf 1022,6 hPa 0,0 l/m 0 min 0 min 0 W/m 9,0 km/h (2 Bft) 93,62 %
18.02.2018 23:22 0,7 C 0,0 C -2,2 C 85 % 0 lf 1022,6 hPa 0,0 l/m 0 min 0 min 0 W/m 9,0 km/h (2 Bft) 95,74 %
18.02.2018 23:24 0,7 C 0,0 C -2,8 C 85 % 0 lf 1022,6 hPa 0,0 l/m 0 min 0 min 0 W/m 6,8 km/h (2 Bft) 95,74 %
18.02.2018 23:26 0,7 C 0,0 C -2,8 C 85 % 0 lf 1022,6 hPa 0,0 l/m 0 min 0 min 0 W/m 6,8 km/h (2 Bft) 95,65 %
18.02.2018 23:28 0,6 C 0,0 C -2,8 C 85 % 0 lf 1022,6 hPa 0,0 l/m 0 min 0 min 0 W/m 9,0 km/h (2 Bft) 95,74 %
18.02.2018 23:30 0,6 C 0,0 C -2,8 C 85 % 0 lf 1022,6 hPa 0,0 l/m 0 min 0 min 0 W/m 9,0 km/h (2 Bft) 93,62 %
18.02.2018 23:32 0,6 C 0,0 C -2,8 C 85 % 0 lf 1022,6 hPa 0,0 l/m 0 min 0 min 0 W/m 6,8 km/h (2 Bft) 93,62 %
18.02.2018 23:34 0,5 C 0,0 C -2,8 C 85 % 0 lf 1022,7 hPa 0,0 l/m 0 min 0 min 0 W/m 6,8 km/h (2 Bft) 95,74 %
18.02.2018 23:36 0,5 C 0,0 C -3,3 C 85 % 0 lf 1022,6 hPa 0,0 l/m 0 min 0 min 0 W/m 4,5 km/h (1 Bft) 93,62 %
18.02.2018 23:38 0,5 C 0,0 C -2,8 C 86 % 0 lf 1022,6 hPa 0,0 l/m 0 min 0 min 0 W/m 6,8 km/h (2 Bft) 93,48 %
18.02.2018 23:40 0,5 C 0,0 C -3,3 C 86 % 0 lf 1022,6 hPa 0,0 l/m 0 min 0 min 0 W/m 6,8 km/h (2 Bft) 95,74 %
18.02.2018 23:42 0,5 C -0,6 C -3,3 C 86 % 0 lf 1022,7 hPa 0,0 l/m 0 min 0 min 0 W/m 6,8 km/h (2 Bft) 95,74 %
18.02.2018 23:44 0,5 C -0,6 C -3,3 C 86 % 0 lf 1022,6 hPa 0,0 l/m 0 min 0 min 0 W/m 9,0 km/h (2 Bft) 95,74 %
18.02.2018 23:46 0,5 C -0,6 C -3,3 C 86 % 0 lf 1022,6 hPa 0,0 l/m 0 min 0 min 0 W/m 9,0 km/h (2 Bft) 97,87 %
18.02.2018 23:48 0,4 C -0,6 C -3,3 C 85 % 0 lf 1022,6 hPa 0,0 l/m 0 min 0 min 0 W/m 9,0 km/h (2 Bft) 93,48 %
18.02.2018 23:50 0,4 C -0,6 C -3,3 C 85 % 0 lf 1022,6 hPa 0,0 l/m 0 min 0 min 0 W/m 6,8 km/h (2 Bft) 95,74 %
18.02.2018 23:52 0,3 C -0,6 C -3,3 C 86 % 0 lf 1022,6 hPa 0,0 l/m 0 min 0 min 0 W/m 9,0 km/h (2 Bft) 97,87 %
18.02.2018 23:54 0,3 C -0,6 C -2,8 C 86 % 0 lf 1022,6 hPa 0,0 l/m 0 min 0 min 0 W/m 9,0 km/h (2 Bft) 97,87 %
18.02.2018 23:56 0,3 C -0,6 C -2,8 C 86 % 0 lf 1022,6 hPa 0,0 l/m 0 min 0 min 0 W/m 6,8 km/h (2 Bft) 95,74 %
18.02.2018 23:58 0,2 C -0,6 C -2,8 C 86 % 0 lf 1022,6 hPa 0,0 l/m 0 min 0 min 0 W/m 6,8 km/h (2 Bft) 97,87 %
_ Min-Zeit 02:04 00:00 01:12 17:04 10:28 22:40 - - - - 00:00 05:45
Minimum _ -3,0 C -3,9 C -6,1 C 70 % 0 lf 1022,5 hPa - - - - 0,0 km/h (0 Bft) 67,54 %
_ Max-Zeit 14:16 12:34 15:22 03:04 10:06 11:48 09:52 09:08 00:00 12:16 15:10 00:10
Maximum _ 7,3 C 13,9 C 6,7 C 94 % 14 lf 1025,9 hPa 0,2 l/m 4 min 0 min 458 W/m 24,8 km/h
O-SO (4 Bft)
100,00 %
Durchschnitt _ 1,3 C 2,4 C -1,1 C 84 % 1 lf 1024,5 hPa #0,2 l/m #8:24 h #0 min. 241 W/m 12,0 km/h (2 Bft) 96,23 %
© 2018 W. Hausmann